GFSNW_850_thetae_069.txt.gz
Theta_e
295 294 295 295 297 296 295 297 301 301 302 302 303 304 304 304 305 305 305 306 307 309 310 310 311 316 311 308 308 313 312 314 317 319 319 318 319 320 322 324 324 325 327 328
294 293 294 294 294 296 296 297 299 300 301 304 305 304 304 304 304 305 306 306 306 308 308 310 310 313 311 308 308 311 312 315 315 317 320 318 320 320 321 322 323 327 328 325
294 294 294 294 294 295 296 298 301 299 301 302 304 304 305 304 304 305 305 307 306 307 309 310 309 310 308 307 307 307 310 316 317 319 320 319 319 320 320 321 324 323 325 324
293 294 295 294 294 295 296 296 300 301 302 303 303 304 305 304 304 305 304 306 306 307 308 309 309 309 309 308 307 308 311 318 319 317 319 319 319 319 320 320 321 321 321 321
292 293 293 293 294 295 295 296 298 299 300 301 303 303 304 304 305 305 306 306 305 306 306 307 307 308 309 309 309 309 309 315 316 319 317 318 319 318 318 319 319 320 320 320
292 293 293 293 293 294 296 296 297 298 300 302 303 303 303 303 304 303 305 306 306 306 307 307 308 308 308 308 309 309 308 312 315 322 317 317 318 319 319 319 319 321 321 321
293 293 293 293 294 294 296 296 297 298 300 301 302 302 303 304 304 305 305 305 306 306 307 307 307 307 307 308 308 308 309 311 313 317 318 318 320 318 318 319 319 319 320 319
295 294 293 293 294 294 295 296 297 298 300 300 300 301 302 302 303 305 306 305 306 306 306 308 308 309 309 310 309 309 309 310 314 313 317 317 315 317 319 321 320 317 319 318
296 296 295 294 293 293 294 296 296 297 300 301 299 300 301 303 304 306 305 306 305 303 307 310 310 311 310 310 310 309 309 310 313 316 317 316 315 317 316 316 320 315 316 316
298 297 297 297 295 293 293 295 296 297 298 298 301 302 302 302 303 305 306 306 305 303 307 309 309 310 309 311 313 311 312 311 312 314 315 313 315 316 316 317 318 315 315 316
298 298 298 298 297 295 293 293 295 295 297 297 299 300 302 302 303 307 306 305 305 304 309 309 309 310 310 310 312 312 311 312 312 312 313 314 315 314 316 316 315 315 314 313
298 298 298 298 298 298 295 295 295 296 297 298 300 299 301 303 303 304 303 305 305 306 308 309 309 310 310 310 311 312 313 311 313 312 312 315 315 315 313 314 314 312 312 311
298 299 298 298 298 298 297 295 295 296 296 297 298 300 301 301 303 304 305 304 304 305 306 308 310 310 310 311 311 311 311 312 313 314 314 314 314 313 311 312 311 310 309 308
299 300 299 299 298 298 298 297 296 297 298 300 301 301 300 303 303 303 304 304 305 305 306 307 309 310 309 311 311 311 311 311 310 311 312 313 313 311 309 309 309 308 307 306
300 299 300 299 298 299 298 297 297 298 299 302 300 302 302 301 301 302 304 303 305 305 306 308 309 309 309 309 310 310 309 311 311 313 311 311 311 308 305 306 305 305 304 303
300 299 300 299 297 298 298 298 298 298 298 301 305 302 302 302 302 302 303 303 304 304 305 307 307 308 309 310 310 311 308 306 306 309 305 307 306 303 302 302 301 300 300 298
299 300 300 297 297 298 298 299 299 298 298 300 302 304 303 303 303 304 304 304 304 303 303 307 307 308 308 309 310 304 302 303 302 301 302 305 302 301 299 300 298 297 296 294
299 300 299 298 298 298 299 299 299 299 299 300 304 305 304 303 304 304 304 304 303 303 305 307 308 307 308 309 299 297 297 299 301 297 298 298 298 296 296 296 295 294 292 290
299 299 299 298 297 299 299 298 299 300 300 303 304 307 306 303 304 303 304 303 304 304 304 306 308 308 301 295 294 293 292 293 293 295 297 297 296 294 292 291 291 292 290 289
300 298 297 298 298 299 298 299 299 299 300 302 305 305 306 303 304 304 304 304 307 305 305 305 308 297 293 292 291 290 290 291 291 292 294 292 293 293 291 290 289 288 287 285
298 299 298 299 298 299 299 298 301 300 304 302 304 304 305 303 306 306 305 308 307 307 307 307 305 297 292 290 289 288 288 289 289 289 289 289 289 289 289 286 285 284 283 281
300 299 298 298 298 299 302 304 302 303 304 302 303 304 304 303 304 305 304 306 306 307 304 306 304 293 289 288 287 287 286 287 286 286 286 285 285 285 284 283 281 280 280 280
299 299 296 298 296 302 303 301 302 301 300 299 302 303 302 302 302 303 305 307 306 301 305 301 294 289 287 287 286 285 285 284 284 283 283 282 281 280 280 279 279 279 279 279
295 296 294 298 297 296 297 299 299 295 297 298 301 301 303 300 302 303 303 299 301 304 304 298 291 287 286 285 284 284 282 281 281 280 279 279 279 279 280 280 280 280 280 280
292 293 294 293 291 291 291 292 295 294 294 297 301 301 301 300 300 299 299 300 300 300 298 292 287 285 284 284 283 282 281 281 281 280 279 279 279 280 279 280 280 280 280 279
289 289 293 291 295 294 292 293 294 292 295 297 300 300 300 298 299 299 298 302 300 293 290 286 284 283 282 282 282 282 281 281 280 279 279 279 280 280 279 279 279 279 279 278
289 289 288 290 290 291 290 290 291 292 296 299 300 299 296 296 297 294 293 293 290 287 286 285 284 283 282 281 281 281 281 280 280 279 279 279 279 279 278 277 276 276 276 275

GFSNW_850_thetae_072.txt.gz
Theta_e
293 293 294 295 295 296 297 296 300 299 301 302 302 303 304 305 306 305 306 306 307 308 309 310 311 312 314 310 310 312 313 314 315 314 314 318 319 319 319 324 324 322 328 329
293 293 293 294 295 295 296 298 298 298 302 303 304 303 304 304 305 305 305 306 306 306 306 308 309 311 312 310 312 310 309 315 314 315 316 319 320 319 319 320 324 326 331 325
292 293 293 294 294 294 296 298 300 298 302 302 304 303 305 304 304 304 305 306 306 307 306 307 310 312 312 310 309 308 310 312 316 318 319 318 322 320 320 322 325 327 328 326
293 293 293 294 295 295 296 297 299 301 302 303 303 304 306 305 305 304 304 305 305 306 308 307 309 309 310 310 308 309 311 316 317 317 316 319 321 321 320 322 323 325 324 325
293 292 293 294 294 295 296 297 298 298 301 302 303 303 303 304 305 306 305 306 305 305 306 306 307 307 308 311 310 310 310 313 312 314 315 318 321 320 320 321 322 322 321 322
293 293 292 293 294 294 296 296 297 298 300 302 302 305 304 303 304 304 305 306 307 307 307 307 308 308 309 310 310 310 309 311 315 315 317 319 320 320 320 319 319 320 323 322
295 294 293 292 294 293 295 296 297 298 299 300 302 303 303 304 304 304 303 304 306 307 307 307 307 307 308 309 309 308 310 310 311 315 315 320 318 318 318 321 321 320 321 321
296 296 295 293 293 293 294 295 297 298 300 299 300 301 302 303 303 304 304 304 306 307 307 307 307 308 308 309 308 309 310 310 311 316 316 316 316 318 321 320 322 320 320 319
298 297 296 295 293 293 294 295 296 297 300 300 299 300 301 302 304 304 305 306 306 305 306 307 308 308 308 310 310 309 309 310 312 315 316 318 315 318 315 315 318 316 317 317
297 297 297 296 295 293 293 295 296 297 298 298 299 301 302 302 302 304 305 306 306 305 305 307 309 309 310 311 311 311 311 311 312 314 316 314 314 317 316 317 318 316 316 314
297 297 298 297 296 295 293 294 296 296 297 297 298 299 300 302 303 306 306 306 306 305 305 306 309 310 311 311 312 311 311 312 313 312 314 315 315 316 317 317 315 314 313 312
297 297 298 298 297 296 295 295 295 297 297 297 298 299 300 301 301 303 302 304 304 305 307 308 310 312 312 311 312 312 312 312 314 311 313 316 314 314 314 313 312 311 311 310
298 298 298 298 298 298 297 295 296 296 296 297 297 298 298 300 302 301 303 305 304 304 307 308 309 311 311 312 312 312 313 312 314 314 316 315 312 312 312 311 310 309 308 308
299 298 298 298 298 299 298 297 296 296 296 297 297 298 301 298 302 303 303 304 304 305 307 306 309 310 310 312 312 312 312 311 312 314 313 310 309 308 309 308 307 307 306 305
299 299 299 299 298 298 298 297 296 297 296 299 299 299 301 303 301 303 304 304 304 304 306 307 308 309 310 310 312 312 311 311 314 313 309 309 307 305 306 305 304 303 302 301
299 300 299 300 299 298 298 296 297 296 297 298 303 301 302 303 302 302 303 304 303 304 305 306 307 308 309 311 311 305 305 305 303 304 305 306 305 302 301 301 300 300 298 296
299 300 300 300 298 298 297 298 298 297 297 299 302 303 304 303 303 302 303 304 303 304 304 305 307 308 308 310 309 300 300 303 300 300 303 303 299 298 297 297 298 296 294 292
299 300 300 299 298 298 298 299 299 298 299 299 303 304 304 304 304 305 304 304 303 303 305 306 308 308 308 303 297 296 296 299 297 298 299 298 297 296 294 295 295 294 291 289
300 299 298 297 298 298 298 299 299 298 299 301 302 304 306 304 305 304 304 303 304 303 305 306 308 306 299 295 295 293 293 294 294 297 296 296 296 295 293 293 292 292 290 288
299 298 297 298 298 299 299 299 298 299 300 302 304 304 305 304 305 305 303 304 306 307 306 305 304 296 294 293 292 291 291 291 292 293 292 292 292 292 290 289 288 287 286 284
298 298 298 298 299 299 299 298 300 300 303 302 304 304 304 303 306 305 305 306 307 308 306 307 304 298 293 291 290 289 288 289 288 289 288 288 288 288 287 285 284 283 282 281
299 299 298 298 299 300 302 302 302 303 304 304 305 305 304 304 304 305 305 306 307 308 305 306 301 293 290 289 288 287 286 286 285 285 285 284 284 284 283 282 280 280 280 280
298 299 298 300 298 303 303 302 302 304 302 301 303 304 304 303 303 305 306 306 306 303 305 300 294 289 288 287 287 285 284 284 283 282 282 281 281 281 280 279 279 279 279 279
297 298 296 299 299 298 298 299 299 297 299 301 302 302 304 301 302 303 303 301 302 305 305 297 291 287 286 285 284 283 282 281 281 280 279 279 279 278 279 279 279 280 280 279
294 296 296 294 292 293 294 294 296 295 297 300 302 302 302 301 301 301 300 301 302 299 296 291 287 286 285 284 283 282 281 281 281 280 279 279 279 279 279 279 279 279 279 279
290 291 294 294 296 295 294 295 295 294 297 301 302 301 301 299 301 301 300 303 300 294 289 286 285 284 283 283 282 282 281 281 280 280 279 279 279 279 279 279 279 279 279 278
291 291 290 293 292 292 292 292 293 295 297 302 302 301 298 298 298 295 293 294 290 288 287 285 284 283 282 282 282 282 281 281 280 280 279 279 279 279 278 278 277 276 276 275

GFSNW_850_thetae_075.txt.gz
Theta_e
293 293 293 293 293 294 295 296 298 297 299 299 300 300 301 302 303 303 305 305 306 306 307 307 308 311 314 311 310 313 312 316 315 314 315 316 315 320 320 324 325 323 322 326
292 292 293 293 293 294 295 296 296 296 298 300 300 301 301 301 302 304 305 305 306 306 305 306 307 313 310 310 311 309 309 315 317 314 314 314 317 319 320 319 320 324 326 326
292 292 292 293 293 294 295 296 297 298 299 298 301 301 302 303 303 304 303 304 305 305 306 306 306 309 312 310 310 309 309 311 313 316 317 315 318 320 320 320 324 323 325 326
292 293 293 292 293 294 295 295 298 298 293 299 300 302 304 304 304 305 304 305 304 305 305 307 307 308 311 310 309 309 310 311 313 314 313 315 316 317 319 321 321 325 325 325
293 293 293 293 293 295 295 296 297 298 299 299 302 301 302 302 304 305 306 305 305 306 304 304 306 308 308 309 310 310 309 311 311 312 313 314 316 318 318 322 320 321 323 324
293 293 293 293 293 294 295 295 296 296 298 299 300 303 303 303 303 303 304 306 306 307 307 307 307 308 308 309 310 310 310 309 309 313 313 313 318 319 320 321 321 322 324 322
294 294 294 294 292 293 294 295 295 297 296 297 298 299 301 304 304 304 304 304 305 307 307 307 307 307 307 308 309 309 309 310 309 312 313 321 316 317 319 320 321 321 321 321
295 296 296 294 294 292 294 294 295 297 294 297 298 299 300 301 302 304 304 304 305 305 306 307 307 305 306 307 307 308 308 309 310 311 314 314 317 318 318 321 318 315 318 320
296 296 296 296 295 293 293 294 294 295 297 296 298 300 300 300 301 303 303 305 305 305 305 304 305 306 307 308 308 307 307 308 309 312 314 318 316 316 314 316 319 314 315 315
296 296 297 296 295 295 293 294 294 296 297 297 297 298 299 299 301 302 302 305 305 304 302 302 304 306 307 308 309 308 308 309 311 311 312 313 317 315 314 318 317 316 313 312
296 296 296 297 296 296 295 293 294 295 296 297 297 297 298 299 300 303 303 304 305 303 301 302 304 305 308 310 310 310 309 311 310 310 311 312 316 315 318 316 313 311 310 310
296 297 296 297 297 297 296 294 293 295 297 296 297 297 297 298 299 300 300 302 302 304 304 304 305 308 308 310 312 311 311 310 311 310 310 314 314 314 311 310 309 308 307 307
298 297 297 296 298 298 296 295 295 294 295 296 296 296 296 296 297 299 301 302 302 303 305 306 306 308 309 309 310 312 312 310 312 312 313 312 310 309 308 308 307 306 305 304
298 298 297 297 298 298 297 297 295 296 295 295 295 296 297 297 298 298 300 302 302 302 304 303 305 307 308 309 310 309 307 311 312 307 304 306 305 306 305 305 305 303 302 302
299 299 298 298 298 298 298 297 297 296 296 298 298 297 298 298 299 301 300 302 303 304 303 305 306 307 308 307 309 305 304 303 308 308 304 303 302 302 302 301 301 300 299 297
300 299 299 298 298 298 298 296 297 295 296 296 297 297 298 301 302 302 301 303 304 303 304 305 306 307 306 308 307 300 299 299 300 303 302 301 299 299 299 299 297 296 295 293
299 299 299 299 298 298 298 297 297 297 296 297 298 300 302 301 302 302 302 302 303 302 303 304 305 307 306 305 303 297 296 297 298 300 301 298 297 295 296 297 295 294 291 291
299 299 300 299 298 298 298 299 298 297 297 297 299 300 302 303 303 303 303 304 303 303 304 305 306 307 301 297 295 294 294 295 295 296 297 297 295 294 294 294 292 291 289 288
300 299 299 298 297 297 299 299 298 297 298 298 299 301 303 303 304 302 303 303 302 303 303 304 306 299 295 295 293 291 291 292 292 294 293 293 293 291 290 290 289 287 286 285
299 299 298 297 298 298 298 298 298 298 299 300 301 302 301 303 303 303 303 302 303 305 303 304 298 295 292 291 289 289 289 289 289 290 289 290 290 287 286 286 285 285 284 284
298 298 298 299 298 298 299 297 299 298 300 300 302 301 302 303 303 303 304 303 302 304 305 305 301 295 291 288 287 287 287 286 286 286 286 286 286 285 284 282 281 281 281 281
299 299 299 299 299 299 300 300 300 300 299 302 301 302 303 302 303 302 303 304 303 306 303 305 296 291 288 287 285 285 284 284 283 283 283 283 283 283 282 280 279 279 280 280
299 299 299 299 298 299 298 300 297 301 301 302 303 302 303 303 302 303 302 303 303 301 301 293 290 288 287 286 284 283 282 282 281 281 280 281 280 280 280 280 279 279 279 279
297 297 290 297 298 296 296 297 298 297 300 302 302 302 302 302 300 301 302 299 300 301 296 291 287 285 284 284 283 282 281 280 280 280 280 280 280 280 280 280 280 280 279 279
294 295 294 292 293 294 294 295 296 296 299 301 301 300 300 299 299 299 298 300 301 294 288 285 286 285 284 282 282 281 281 280 279 279 280 280 280 280 279 279 279 280 279 279
290 291 294 294 294 293 294 295 295 296 299 301 301 300 299 298 299 297 293 298 291 286 283 284 284 283 283 282 282 281 280 280 279 279 279 279 280 280 279 279 279 279 278 277
291 290 290 293 292 292 292 293 294 296 299 301 298 297 298 296 293 291 289 287 286 286 285 284 283 282 282 281 281 281 281 280 280 279 280 280 279 279 278 278 277 277 276 276

GFSNW_850_thetae_078.txt.gz
Theta_e
293 292 293 292 293 293 293 294 295 296 297 298 298 298 298 299 299 301 302 304 305 306 306 306 306 312 313 311 310 312 312 313 313 313 313 316 317 318 320 320 323 323 323 325
292 292 292 292 293 294 293 294 295 295 296 299 297 298 299 299 299 300 302 304 304 304 305 304 306 311 310 310 309 309 309 312 313 313 314 316 316 317 317 320 320 325 325 325
293 292 292 292 292 293 294 295 295 297 297 296 299 298 298 300 300 301 300 301 303 304 305 306 305 309 311 309 310 308 309 310 311 313 314 314 316 315 314 319 321 321 322 323
292 292 293 293 293 293 294 294 293 296 298 298 298 299 299 301 301 301 302 304 304 304 304 304 304 307 310 310 309 309 309 309 310 311 312 312 313 316 316 316 318 322 321 323
292 293 294 293 293 293 294 294 295 296 298 298 299 301 300 302 302 304 305 305 306 306 306 306 307 307 308 309 307 309 308 308 310 310 311 314 315 315 314 315 317 317 319 322
293 293 294 294 293 293 294 294 294 295 296 297 297 298 299 303 303 303 302 303 304 306 306 307 307 307 307 307 309 309 308 310 308 308 312 311 315 315 315 315 318 319 321 320
294 294 294 294 294 294 293 294 295 296 295 296 297 298 298 301 301 303 303 303 304 305 306 305 306 306 307 306 307 308 308 308 307 308 310 315 316 313 317 320 318 320 321 321
295 295 295 295 295 295 293 293 294 296 294 297 297 298 300 300 300 301 303 304 304 305 305 305 305 304 305 305 306 307 307 307 306 306 310 309 314 315 318 313 315 318 319 319
295 295 296 296 296 296 295 293 294 294 295 296 297 298 299 299 300 301 302 304 304 304 301 302 304 305 306 307 307 306 307 306 306 308 311 310 314 314 314 316 317 314 317 317
294 295 296 296 297 296 295 293 293 294 295 295 295 296 297 298 300 300 301 300 304 304 299 300 302 305 306 306 307 307 305 306 309 308 310 311 312 315 315 318 317 312 311 311
295 295 296 296 296 296 295 294 293 294 295 295 295 296 297 297 298 299 299 300 304 302 300 301 302 301 304 306 309 310 308 308 308 308 311 311 314 314 316 313 311 310 310 309
296 296 296 296 296 296 296 295 293 293 294 295 296 296 296 296 296 298 299 300 300 300 302 301 303 304 305 309 311 309 311 308 307 308 309 312 311 312 310 309 307 306 307 306
297 297 297 296 296 297 297 295 294 294 294 294 294 295 295 296 297 298 299 300 300 301 302 304 306 307 307 308 310 311 307 309 310 310 308 308 306 307 306 307 303 302 302 302
298 298 298 297 297 297 297 296 295 294 295 292 294 295 296 296 297 297 296 297 300 300 301 303 304 305 305 307 305 303 303 304 309 306 303 303 301 301 302 301 301 301 300 299
298 299 298 298 297 297 297 298 296 295 294 294 296 297 298 296 298 298 298 298 299 301 302 302 306 306 307 304 303 300 299 300 307 306 300 301 299 299 299 299 295 296 296 296
298 299 299 298 298 298 298 298 297 297 295 296 294 296 297 297 297 299 299 300 299 303 302 304 304 306 304 306 302 297 296 298 300 298 298 297 297 297 298 297 294 293 293 291
298 298 299 299 299 298 298 297 297 297 296 297 295 296 300 302 300 301 301 302 303 302 302 303 304 306 304 300 298 294 294 295 296 297 299 295 295 294 294 293 292 292 290 289
298 298 299 299 298 298 298 298 298 297 296 296 296 296 299 302 302 302 302 303 303 303 303 304 304 300 297 296 293 291 292 293 293 294 294 293 293 294 292 291 291 290 287 286
298 298 299 298 298 297 298 299 297 297 297 296 297 300 299 302 303 303 301 302 302 302 303 303 301 296 293 292 290 289 289 290 291 291 292 291 290 290 289 289 287 286 284 283
299 300 299 297 297 298 297 297 297 297 297 299 299 299 301 302 301 301 300 302 303 303 302 300 295 292 289 288 288 287 287 287 288 289 288 289 287 287 286 285 285 284 283 283
300 298 298 298 298 298 299 296 298 297 298 297 299 300 302 302 302 301 302 301 302 305 303 302 297 293 288 286 286 286 285 285 285 285 285 286 285 283 282 281 281 281 281 282
299 299 298 298 298 298 299 299 298 297 298 299 301 300 301 301 303 301 302 302 302 305 302 297 290 289 286 285 284 284 283 283 283 283 282 282 282 281 280 279 280 281 280 280
298 299 299 298 298 299 296 299 298 300 301 302 302 301 301 300 301 301 301 300 303 299 292 290 288 287 285 284 283 282 282 281 281 281 281 281 281 280 280 280 280 280 280 280
297 295 291 291 297 295 291 294 297 297 300 302 301 301 300 301 299 300 300 297 298 297 291 289 285 284 284 283 282 281 280 280 280 280 280 280 280 280 280 280 279 280 280 279
293 293 291 287 292 294 295 296 296 297 300 301 300 298 300 297 298 298 298 298 296 292 290 284 284 283 283 282 281 281 280 280 280 280 280 280 280 280 279 279 279 279 279 279
291 291 292 293 291 291 294 295 295 297 300 300 300 298 298 298 298 293 291 295 291 283 279 284 284 283 282 281 281 280 280 280 280 280 280 280 280 280 280 279 278 278 277 276
290 288 290 291 291 290 292 293 294 296 299 299 297 297 297 295 288 286 286 282 280 283 283 284 283 282 282 281 281 280 280 280 280 280 279 279 279 278 278 278 277 277 276 276

GFSNW_850_thetae_081.txt.gz
Theta_e
292 292 292 292 292 293 294 293 289 296 297 297 297 297 297 297 298 299 299 302 303 304 305 305 307 312 313 310 311 312 311 313 312 311 312 314 315 316 318 322 324 322 321 320
293 293 292 293 292 293 294 293 294 294 294 296 298 297 298 297 298 298 299 301 303 303 304 305 307 311 310 310 308 310 309 311 310 308 312 316 317 316 315 317 318 320 320 319
293 292 292 292 292 293 294 293 293 294 296 295 293 296 298 297 298 299 300 300 300 300 303 304 306 309 310 309 309 308 308 309 309 309 309 312 312 314 314 313 319 321 319 320
291 291 291 292 293 293 293 293 292 294 288 294 296 295 294 297 298 299 299 300 302 303 305 305 304 308 310 309 309 308 306 308 309 309 309 310 311 312 312 313 314 316 315 319
291 292 292 293 294 293 293 294 294 295 296 296 297 297 300 300 299 302 302 302 303 305 305 306 307 306 307 309 307 308 307 308 308 309 308 309 311 309 312 313 314 315 315 316
291 292 293 294 294 294 293 293 293 294 294 295 296 297 298 298 299 302 302 303 303 304 305 306 306 306 306 307 308 308 308 307 308 306 306 307 310 312 314 315 315 313 315 316
293 293 294 294 294 294 294 293 293 295 293 296 296 297 297 300 301 303 302 303 303 304 305 305 305 305 305 305 306 306 307 307 306 305 306 304 310 312 313 315 316 315 317 317
294 294 295 295 295 295 295 294 292 295 293 296 296 297 298 299 299 301 302 303 303 304 304 304 304 303 304 304 305 307 305 306 305 304 306 305 307 313 313 313 315 313 317 316
293 294 295 295 296 296 296 294 293 293 294 293 296 296 297 298 299 301 301 299 304 303 300 303 304 305 305 306 306 305 305 304 305 305 307 306 310 312 311 311 316 312 316 315
294 294 294 295 296 296 296 295 294 293 294 294 294 295 296 298 298 299 300 298 303 303 299 301 302 304 304 306 305 306 305 306 308 306 306 307 310 314 312 316 315 310 311 312
294 295 295 295 296 296 297 295 295 293 293 294 295 296 295 296 297 293 297 297 299 301 302 302 302 301 303 304 304 307 306 306 306 305 307 307 311 313 311 311 309 308 308 306
295 295 295 295 296 296 296 295 295 293 293 294 295 295 296 296 296 296 297 297 298 299 301 300 302 303 301 305 305 308 309 307 307 307 307 309 308 311 308 306 305 305 305 303
296 296 296 296 296 296 296 295 294 294 294 294 294 294 294 295 295 296 298 299 299 299 299 302 304 304 306 305 307 304 302 301 309 309 304 303 303 301 300 301 298 299 300 299
297 297 296 297 297 296 297 296 295 294 293 291 293 294 294 294 296 295 295 297 298 298 300 301 302 305 305 306 302 300 299 300 306 306 303 301 298 297 297 296 295 295 295 294
298 298 298 298 297 297 297 297 296 295 294 292 295 295 298 297 295 297 298 297 296 299 300 299 303 305 304 301 301 297 296 298 301 304 299 299 296 295 295 295 292 292 292 292
298 298 299 299 298 297 297 297 297 297 294 295 292 295 296 296 297 297 298 298 297 299 302 301 303 304 304 304 299 294 294 294 296 297 296 296 294 294 295 294 292 291 290 289
298 298 298 299 298 297 298 297 297 297 295 295 294 294 298 300 300 299 299 299 300 302 302 302 303 302 299 298 296 292 292 293 294 295 297 294 294 292 292 293 291 290 289 287
298 297 298 299 298 297 298 298 298 296 295 296 295 294 298 301 301 301 302 302 302 302 302 303 303 297 296 294 291 290 290 291 292 292 292 291 291 291 289 289 289 288 285 284
299 298 299 298 298 298 298 298 297 296 296 296 296 296 299 300 302 302 301 302 301 301 302 302 298 294 291 291 289 288 288 288 289 290 291 290 289 288 287 287 286 284 282 282
299 298 299 297 298 298 298 297 297 296 297 297 296 297 297 299 301 301 300 300 302 304 302 297 294 290 288 287 286 286 286 286 288 289 288 287 286 285 283 282 283 283 283 282
299 299 298 297 298 298 297 297 297 296 297 296 297 299 299 301 302 300 301 301 302 304 303 301 294 291 288 286 285 285 285 285 285 285 285 285 284 283 281 280 281 282 282 282
298 299 297 297 298 298 297 297 298 296 296 297 298 299 300 300 300 300 301 301 302 304 300 295 287 287 285 284 283 282 282 283 283 283 283 283 283 282 281 281 281 281 281 280
298 298 298 298 298 299 296 298 299 298 298 299 301 301 301 300 301 301 301 300 299 298 286 287 285 286 284 283 282 281 281 280 279 280 281 282 281 281 281 281 280 280 280 279
298 296 294 295 296 291 290 287 288 297 299 301 300 301 300 300 299 299 294 294 294 289 289 287 283 284 283 282 281 281 281 281 281 280 280 280 280 280 280 280 279 280 280 279
293 293 291 285 291 293 295 296 297 297 300 301 300 298 299 295 295 296 297 295 290 289 287 279 283 283 282 281 281 281 281 281 281 280 281 281 280 280 280 279 279 279 279 278
291 290 292 291 291 291 294 295 295 297 300 300 299 295 295 295 293 294 291 295 292 283 276 282 283 282 281 281 281 281 281 281 281 281 280 280 279 279 279 278 277 276 276 275
290 288 288 290 290 290 291 293 295 298 299 297 292 292 294 292 288 288 285 283 278 281 282 283 283 282 282 281 281 281 281 281 280 280 279 279 278 278 277 277 277 276 276 276

GFSNW_850_thetae_087.txt.gz
Theta_e
293 293 292 292 293 292 292 293 291 295 293 294 294 295 296 296 296 296 296 297 298 298 299 303 303 304 305 303 307 312 311 311 312 312 310 313 314 315 314 316 318 318 318 319
294 294 293 292 292 292 293 293 292 293 294 291 293 294 295 295 296 296 297 297 297 298 299 300 300 304 304 302 306 312 311 311 309 314 314 314 314 314 311 311 311 315 318 318
294 293 293 291 292 293 293 293 290 292 294 293 294 295 295 296 296 297 297 297 298 298 298 299 301 301 304 302 308 309 308 309 308 307 308 310 310 310 309 312 312 311 311 311
293 292 290 290 291 293 294 292 291 292 291 293 294 293 294 295 296 297 297 298 298 298 299 302 302 304 305 305 307 308 308 309 309 308 308 309 309 309 309 309 309 309 308 309
291 291 291 292 293 293 294 292 292 293 293 293 291 294 295 296 297 298 298 299 298 299 299 302 304 305 306 307 308 309 308 309 308 308 307 307 307 307 307 306 307 308 309 311
292 293 293 292 293 294 293 292 292 292 292 294 293 293 295 297 297 298 298 298 300 300 301 303 304 303 305 306 307 308 307 308 308 307 305 306 305 307 307 308 310 312 311 312
293 293 291 292 294 294 293 293 293 292 292 294 294 295 295 296 296 296 297 300 301 302 303 303 304 304 305 305 305 306 306 306 307 306 305 303 305 305 310 312 311 310 310 311
291 291 294 294 294 295 295 294 293 292 293 294 294 294 295 295 295 298 298 296 298 301 302 304 304 304 304 304 304 306 305 306 306 307 306 304 306 312 310 311 310 306 306 306
292 292 293 294 295 295 295 295 294 293 292 292 293 294 294 295 297 297 297 296 298 299 301 303 303 304 304 304 305 305 305 306 307 306 305 304 303 309 309 311 312 303 301 301
291 292 292 293 294 295 295 295 294 294 292 293 293 294 294 295 295 296 296 295 298 300 302 304 303 303 303 304 304 306 305 304 305 305 305 305 305 307 310 312 309 299 297 297
291 291 292 293 294 295 295 297 295 295 293 294 294 293 294 294 294 295 295 297 298 300 302 303 303 303 304 305 305 305 306 306 306 305 307 306 301 307 309 306 299 298 296 295
291 292 293 294 294 294 295 296 295 296 294 294 294 294 294 293 293 294 295 297 298 298 299 301 303 302 303 303 305 303 307 304 303 308 307 300 297 297 295 296 296 296 295 293
292 293 294 295 295 295 295 297 296 294 293 294 293 294 293 293 293 293 294 297 298 298 298 299 302 303 304 306 301 300 296 296 301 301 299 296 295 294 293 293 292 292 292 291
293 293 294 295 295 295 295 296 295 295 293 292 293 293 294 294 294 294 294 293 296 297 297 298 302 300 302 302 298 297 295 296 297 301 299 296 292 291 291 290 290 290 289 288
293 294 295 297 297 296 296 296 296 295 294 293 294 295 295 295 297 295 295 294 294 296 296 299 301 301 303 300 296 294 293 294 297 297 295 293 290 289 289 288 287 287 287 286
294 295 296 298 298 296 297 296 295 295 295 295 293 294 295 296 296 296 295 296 295 296 298 300 301 301 301 301 297 292 291 292 293 295 292 290 289 288 287 286 286 285 286 285
295 296 298 298 298 297 297 296 297 296 295 294 294 294 296 298 298 296 296 296 297 297 299 300 301 298 297 297 296 290 290 291 291 292 292 289 289 286 285 285 284 285 284 285
296 297 298 299 298 297 296 297 297 295 295 294 295 295 295 299 299 298 298 298 298 300 299 300 301 296 295 294 290 288 288 290 289 289 289 287 286 285 284 284 283 284 283 283
297 298 298 299 297 297 297 297 296 296 295 295 295 295 296 299 299 300 299 299 299 299 301 301 299 294 292 291 289 287 286 286 287 287 286 285 284 283 283 283 282 281 280 282
297 298 297 297 297 297 297 296 295 295 296 296 295 295 296 298 299 298 298 299 300 300 301 296 294 289 287 286 285 284 284 285 288 288 286 285 283 282 281 280 280 281 281 281
298 298 297 297 297 297 297 295 296 296 296 295 296 295 296 298 300 300 297 301 301 303 302 302 296 291 288 285 283 283 283 283 283 283 283 283 282 281 280 279 281 281 281 281
298 298 297 297 298 297 297 296 296 296 297 295 295 295 297 299 299 299 299 302 301 303 298 299 296 289 286 284 282 282 282 282 282 282 282 282 282 282 282 281 281 280 280 280
298 297 297 296 297 298 296 294 297 296 295 295 296 298 299 299 298 299 302 302 303 297 297 298 289 286 284 283 282 280 281 282 282 282 282 282 281 281 281 280 280 280 280 279
298 297 296 296 296 295 292 294 295 296 297 297 298 298 299 298 299 300 300 298 298 299 298 297 287 284 283 282 282 282 281 281 281 281 281 281 281 280 280 280 279 279 278 277
296 296 294 290 292 293 294 295 295 297 297 299 299 298 298 297 297 296 296 299 299 298 297 286 283 284 283 282 282 282 281 281 281 281 281 281 280 280 280 279 278 277 277 276
292 291 288 289 292 293 295 295 296 298 299 300 299 297 298 297 295 297 299 298 296 292 282 282 283 283 282 282 281 281 281 281 281 281 281 281 280 279 279 278 278 277 277 277
289 286 288 290 291 292 293 295 296 298 299 298 294 294 297 293 292 293 289 292 286 281 282 283 284 283 282 282 283 283 282 282 282 281 280 280 280 279 279 278 277 277 276 276

GFSNW_850_thetae_090.txt.gz
Theta_e
292 292 292 292 293 292 293 295 298 294 294 297 297 297 297 296 297 297 298 298 299 299 300 301 302 304 304 304 303 305 312 313 315 315 314 314 315 315 316 318 320 318 318 319
294 294 292 292 292 293 294 296 295 294 295 297 297 297 296 296 297 297 298 298 298 299 298 299 301 302 303 302 303 308 313 313 314 315 313 314 314 316 315 314 314 317 318 318
294 293 293 292 291 293 294 296 297 295 296 295 296 296 297 297 296 298 298 299 299 300 299 300 300 300 302 300 301 302 309 312 311 312 313 314 314 313 312 314 315 314 315 313
294 293 291 290 290 293 294 295 296 295 297 297 296 296 296 297 298 298 298 299 300 300 300 300 301 303 304 303 305 309 311 312 311 309 309 309 309 309 310 311 310 310 310 310
293 290 292 291 293 293 294 295 296 294 295 295 295 296 296 297 298 298 298 300 300 299 301 301 300 303 304 308 306 307 308 310 309 307 308 308 307 307 308 308 308 310 310 312
291 292 292 293 293 293 295 294 294 294 295 296 296 297 296 296 297 297 297 299 300 300 301 301 301 302 304 305 307 307 308 309 307 307 306 306 306 307 308 308 309 311 312 312
292 293 294 291 294 294 295 294 294 294 296 296 296 296 296 296 296 298 297 299 301 301 301 303 304 305 306 306 307 307 308 307 308 307 307 306 311 309 310 309 311 308 308 309
293 293 291 291 293 294 294 294 295 295 296 296 296 296 296 295 296 298 297 297 296 298 301 306 305 305 306 306 307 307 308 308 308 308 306 305 310 310 309 310 310 304 304 303
290 291 293 294 294 295 295 294 294 294 296 297 295 296 295 297 297 298 297 297 299 299 304 305 304 305 305 305 308 307 307 307 308 307 307 305 309 308 309 311 314 301 301 299
291 291 292 293 294 295 295 295 295 294 295 296 295 297 297 296 296 297 297 297 300 301 305 304 305 305 305 305 304 306 307 306 307 306 307 308 305 306 307 314 308 299 298 295
292 291 292 292 293 294 295 295 295 295 294 296 295 295 296 295 296 298 297 301 300 302 304 305 304 305 306 306 307 307 308 309 309 307 308 309 299 306 308 301 298 296 295 293
291 291 291 292 293 294 295 295 295 295 294 296 295 294 295 295 295 295 297 298 300 300 302 302 304 304 306 306 308 305 308 303 305 304 303 298 296 296 294 295 295 294 293 291
291 291 292 293 295 295 295 295 295 295 294 294 296 296 295 293 293 295 296 298 299 300 299 300 302 304 305 308 305 304 300 298 304 304 298 296 295 294 293 291 291 291 290 290
291 292 294 294 295 295 295 295 295 295 295 296 297 293 296 295 294 294 294 295 296 296 297 299 303 303 302 304 301 301 297 297 299 300 298 297 292 290 290 289 289 288 287 287
292 292 293 293 295 295 295 295 296 295 296 297 297 296 295 296 296 296 294 296 296 297 299 301 303 302 304 300 300 298 295 295 299 300 295 294 291 288 288 287 286 286 286 285
293 293 294 295 296 296 296 295 296 296 294 296 298 297 296 297 297 296 296 297 297 298 299 301 302 302 301 304 300 293 293 292 293 295 291 290 288 287 287 286 285 284 283 283
293 294 295 296 298 297 296 298 298 296 295 295 296 299 297 298 298 297 297 297 299 299 300 301 302 300 299 300 300 292 291 291 292 292 291 290 288 287 285 284 284 283 283 283
294 295 297 298 298 297 296 297 297 295 295 295 296 299 298 299 300 300 299 299 299 300 300 301 302 299 298 296 291 289 290 290 289 289 289 288 287 286 286 285 284 284 283 282
295 296 298 299 297 297 297 296 296 295 296 297 296 298 301 298 299 301 300 300 301 301 301 301 300 299 298 293 290 289 288 288 288 288 288 287 287 286 286 285 284 284 282 281
296 297 297 297 297 297 297 295 295 296 296 295 297 297 300 300 299 300 300 300 301 300 302 299 301 295 289 288 287 287 286 287 289 289 288 287 286 285 284 283 282 282 280 279
296 297 297 296 297 297 297 296 297 296 297 297 297 298 300 299 301 302 299 302 302 302 304 303 302 298 290 287 286 285 285 285 286 286 285 285 284 283 282 280 280 280 280 281
297 297 296 296 297 297 299 298 298 298 299 298 297 297 298 299 299 301 299 300 302 305 301 303 303 293 288 286 285 284 284 284 283 283 283 282 282 281 280 279 280 281 281 280
297 297 297 297 297 300 299 298 299 300 298 297 297 298 298 298 299 300 302 304 305 300 303 304 297 289 287 285 284 283 282 281 281 280 280 280 281 281 281 281 281 280 279 278
297 297 299 298 299 299 300 300 302 299 298 298 297 299 300 300 299 302 303 302 302 302 303 304 293 287 285 284 283 282 280 281 281 282 282 282 282 282 281 281 279 278 278 277
297 298 300 298 297 295 295 295 296 296 298 299 299 299 300 300 302 301 300 301 302 302 304 295 289 286 283 281 281 282 282 282 282 281 281 281 281 280 280 278 277 277 277 276
294 292 295 292 296 296 295 295 295 296 297 299 301 300 301 302 301 300 301 302 303 301 293 288 285 282 282 283 282 282 281 281 281 281 281 280 278 278 278 277 277 277 276 276
291 292 289 293 295 297 295 296 296 297 299 303 301 301 302 297 300 300 298 301 295 288 286 285 284 283 283 282 282 282 281 281 281 280 279 279 279 279 278 277 277 277 276 276

GFSNW_850_thetae_093.txt.gz
Theta_e
293 292 292 292 292 292 297 299 302 297 297 301 299 301 298 297 298 298 299 299 299 300 301 301 301 302 304 305 304 306 307 315 316 313 313 312 313 315 316 317 318 317 321 322
293 293 292 292 292 295 298 300 299 297 299 301 300 299 298 298 299 299 299 299 299 300 300 300 301 302 303 302 304 306 307 315 318 316 316 316 315 315 315 316 317 319 318 318
295 294 293 291 292 294 298 299 301 298 298 297 299 299 299 299 299 299 299 300 300 301 301 302 301 302 301 302 302 303 304 308 317 316 316 316 316 316 316 316 317 315 316 315
295 294 293 292 291 294 298 299 299 298 300 300 299 298 298 299 299 299 299 301 301 302 302 302 302 303 304 304 304 305 306 315 313 314 314 314 314 314 314 314 314 312 312 311
295 293 290 289 292 294 298 298 299 297 298 297 298 299 298 299 299 299 300 300 301 301 302 301 302 302 304 307 307 307 308 313 311 310 309 309 309 309 310 310 310 310 311 312
294 290 292 293 293 296 297 297 296 298 296 299 299 300 298 298 299 298 299 300 301 303 303 303 303 304 303 305 307 308 309 309 310 309 307 307 307 308 308 309 311 313 314 312
292 291 292 293 294 296 297 296 297 297 299 299 298 298 298 298 298 299 299 300 301 302 300 302 303 304 305 306 307 306 310 308 310 308 307 311 310 310 310 312 311 310 309 309
292 293 294 293 293 295 296 296 296 297 299 298 299 298 299 299 298 300 300 299 299 299 299 303 307 307 308 308 308 307 308 309 308 309 309 308 311 309 309 310 310 305 305 304
293 293 293 291 293 294 296 296 296 297 298 300 298 298 299 300 299 299 299 300 302 301 304 307 308 306 306 306 307 307 307 308 310 309 307 309 310 308 308 310 309 302 301 299
292 290 292 294 294 295 296 295 295 295 298 298 298 299 299 298 299 301 301 301 302 303 306 307 307 306 306 306 307 307 308 308 310 308 309 311 304 306 306 314 305 299 297 295
291 292 291 293 294 295 296 296 295 296 297 297 298 298 298 298 298 301 299 303 302 303 305 305 306 307 306 308 308 308 309 310 311 310 310 312 299 305 305 299 298 297 295 294
292 291 291 292 293 293 295 296 295 295 295 297 297 297 297 297 297 298 299 300 302 302 303 303 305 307 308 308 311 306 309 304 306 304 303 299 297 297 295 296 296 295 294 292
292 292 291 291 292 294 295 297 295 295 295 296 298 299 297 296 296 297 299 301 300 300 299 300 304 306 307 309 306 307 303 301 305 303 299 297 295 294 293 292 291 291 290 290
292 291 291 292 293 295 295 296 295 295 296 298 299 295 298 298 297 297 297 298 298 299 300 301 304 306 304 306 305 302 298 300 302 300 299 296 292 291 291 290 289 288 288 288
289 291 293 294 294 295 295 296 296 296 297 298 299 299 298 298 299 298 298 298 299 300 301 302 304 304 304 304 303 300 296 296 300 300 296 295 291 289 288 288 287 287 287 286
291 293 293 293 294 295 296 297 297 296 295 297 299 299 299 299 300 299 298 299 300 299 300 301 302 303 303 306 302 295 294 293 295 295 292 291 289 288 287 286 285 285 285 284
292 293 293 293 295 296 297 298 298 296 296 297 298 300 299 299 300 300 299 299 300 300 301 302 303 302 301 303 303 294 293 293 293 293 293 292 289 288 287 286 285 285 285 285
292 293 294 295 297 297 296 298 297 296 296 297 297 300 300 300 300 301 300 300 300 300 301 302 302 302 299 298 293 292 292 291 291 291 291 290 288 288 287 287 287 286 285 284
293 294 295 296 298 298 297 297 296 295 297 298 297 300 303 300 300 301 301 301 302 302 303 303 302 303 299 295 293 291 291 292 290 290 291 290 290 289 288 287 287 286 284 283
294 295 297 297 297 297 297 296 296 296 295 297 299 300 302 301 301 302 301 301 302 302 303 302 303 297 291 290 289 289 289 290 290 291 290 289 288 287 286 285 285 284 283 282
295 296 297 297 297 297 297 297 298 297 298 298 297 299 301 301 302 302 301 303 303 303 305 304 304 300 292 289 288 288 288 289 289 289 288 288 287 285 284 283 283 281 280 281
296 297 296 296 297 297 300 299 299 299 300 300 299 298 300 301 300 302 301 301 304 305 303 304 305 295 291 289 288 287 287 287 287 287 286 286 285 284 283 282 280 281 281 279
297 297 297 297 297 302 301 299 300 301 301 300 299 299 299 300 300 301 302 302 305 304 305 306 299 292 290 288 287 286 285 285 285 284 284 283 282 281 282 282 281 280 279 278
297 298 301 300 300 301 302 303 305 302 301 300 298 300 301 301 301 302 303 304 303 305 305 306 296 290 288 287 286 285 284 282 282 281 281 282 282 282 282 280 279 278 278 277
297 299 301 300 300 299 298 299 299 299 300 299 300 301 301 302 303 303 303 303 304 303 305 299 292 288 287 285 284 281 280 280 280 282 282 281 281 281 279 279 278 278 277 277
297 297 298 297 299 298 296 296 297 297 300 299 301 301 302 303 303 302 302 304 305 303 297 292 288 286 285 283 281 280 280 280 281 282 281 281 279 279 279 278 278 278 277 277
295 295 293 296 297 299 297 296 297 297 300 305 302 302 302 302 302 302 303 304 298 293 290 288 287 284 282 281 281 282 281 281 281 281 280 279 279 279 279 278 277 276 276 276

GFSNW_850_thetae_096.txt.gz
Theta_e
294 292 292 292 293 293 299 301 304 300 298 304 302 303 300 298 299 299 300 299 300 300 300 301 301 301 302 304 305 304 306 311 311 315 313 313 312 314 317 317 317 317 322 324
294 292 292 292 292 297 300 302 301 296 302 305 303 300 300 299 300 300 300 300 300 301 300 301 301 302 302 304 303 304 306 308 313 314 315 314 312 312 314 317 317 320 321 323
293 293 292 291 293 297 300 301 304 300 301 297 300 300 300 300 300 300 301 301 301 302 302 302 303 303 303 304 305 304 304 305 307 311 315 314 313 313 316 317 318 317 317 317
295 294 293 291 293 298 299 301 303 300 303 301 300 300 300 300 300 300 299 301 301 301 302 302 301 304 304 304 304 306 306 309 310 310 311 317 317 316 316 316 315 314 312 314
295 294 293 291 293 297 299 299 301 297 299 299 299 301 300 300 300 300 300 302 301 301 302 302 303 303 303 306 307 308 307 313 311 313 314 314 315 313 314 312 312 311 312 313
295 294 290 290 294 297 299 298 298 299 299 300 301 302 300 300 301 300 299 300 301 301 303 302 302 303 303 305 306 309 309 310 312 309 308 309 310 309 310 313 310 311 311 309
295 291 292 293 296 297 297 298 298 300 301 300 300 299 300 300 300 300 300 301 301 301 301 301 303 303 304 305 308 307 309 310 310 309 309 314 311 311 312 309 306 305 306 304
293 291 292 293 294 297 297 297 298 298 301 300 300 300 300 301 301 302 301 301 302 302 302 304 306 308 309 308 307 307 309 311 311 311 314 312 311 309 310 312 306 302 302 300
292 292 294 294 294 295 296 297 296 298 300 301 299 300 301 301 302 303 303 302 303 303 303 307 310 306 308 309 307 308 307 309 311 311 309 312 306 304 306 308 305 300 298 297
293 294 294 292 293 295 296 298 296 298 299 299 299 300 299 299 300 302 303 302 303 304 305 310 308 307 307 309 308 309 311 310 312 310 313 308 300 303 306 311 303 298 296 294
293 292 291 293 295 295 296 297 296 298 298 298 299 300 299 299 299 301 300 304 303 303 305 305 306 308 308 309 307 308 306 309 308 310 311 308 297 301 302 299 297 297 294 293
291 292 291 293 294 294 295 296 296 296 296 297 296 295 298 298 299 299 300 302 302 301 302 303 304 307 308 309 309 305 305 304 305 302 302 298 296 296 294 295 294 293 293 291
292 291 291 292 293 293 294 297 297 295 295 298 300 301 299 298 298 298 300 302 300 300 300 301 303 307 306 307 306 307 304 302 304 303 298 295 295 294 292 291 290 290 290 289
294 292 292 291 292 293 294 296 296 296 297 298 301 298 300 299 298 298 299 299 300 301 301 301 304 307 304 306 305 301 299 300 302 300 297 295 292 291 290 290 289 289 288 288
292 292 291 291 292 294 295 296 297 297 297 298 299 299 300 299 300 299 299 299 300 301 301 303 304 304 304 305 303 298 296 295 299 298 296 293 291 289 289 288 288 288 287 286
291 290 291 293 294 295 296 296 296 297 296 297 299 300 300 300 300 300 300 300 300 300 300 302 303 304 303 305 301 295 294 294 295 294 292 291 289 288 288 287 286 286 286 286
290 293 293 293 294 295 297 298 298 297 296 298 299 301 301 300 300 300 300 300 300 301 301 302 303 303 302 303 301 294 293 294 294 294 292 291 291 289 288 287 286 286 285 285
291 293 293 293 294 295 296 297 297 296 297 298 298 300 301 301 301 302 301 301 301 300 301 303 303 303 300 298 295 293 292 292 292 292 291 290 290 289 289 288 287 286 285 284
291 293 293 294 295 296 297 297 296 296 298 299 298 299 304 301 301 302 301 301 303 302 304 304 303 304 299 295 293 293 292 293 292 293 292 291 290 290 289 288 287 286 285 284
293 294 295 296 297 297 297 297 296 297 298 298 299 299 302 302 301 303 303 302 303 303 304 303 304 297 293 292 291 291 291 292 292 292 291 290 289 288 287 286 285 284 283 281
294 295 296 297 297 297 297 296 298 298 298 298 298 299 302 301 303 303 302 304 304 303 305 305 305 299 293 290 290 290 290 291 291 290 290 289 287 286 285 284 283 281 281 281
294 296 296 296 297 297 300 299 299 299 300 301 300 299 300 302 302 302 302 301 304 304 304 305 306 296 292 290 289 289 289 288 288 288 287 287 286 285 284 282 281 282 280 279
296 297 296 296 297 300 300 299 300 301 301 302 300 300 300 301 301 301 303 301 303 304 305 305 299 293 291 290 288 287 287 287 286 285 285 284 284 283 283 282 281 280 279 278
296 297 300 300 300 300 302 304 305 302 302 301 299 300 301 301 301 301 302 304 303 304 305 305 296 292 290 289 287 286 285 285 284 283 283 283 283 283 282 281 280 279 279 278
296 297 301 300 301 300 299 300 300 301 301 299 300 302 302 302 302 302 303 304 304 304 305 299 293 290 288 287 286 284 283 282 282 282 283 282 282 281 280 279 279 279 278 278
297 298 300 299 300 298 297 298 298 299 300 300 302 302 303 303 303 303 303 304 305 302 296 292 289 288 286 285 283 281 281 281 282 282 282 282 280 280 280 280 279 278 278 277
297 297 296 298 299 300 297 297 298 299 301 303 302 302 302 303 302 303 304 304 299 293 291 289 288 286 285 282 281 281 281 281 282 282 281 280 281 280 280 280 279 278 278 277

GFSNW_850_thetae_102.txt.gz
Theta_e
298 297 292 292 292 298 300 301 301 300 300 302 302 301 300 299 299 299 299 299 299 300 299 300 300 300 300 301 302 301 304 303 304 304 304 305 310 312 312 311 312 316 316 316
297 293 292 292 293 299 300 302 299 295 301 298 298 300 300 299 300 300 300 300 300 299 299 300 301 302 302 302 302 302 304 302 303 303 310 310 312 312 313 314 313 317 319 315
294 292 292 292 293 300 302 302 297 299 301 297 299 300 300 300 300 300 299 299 299 301 300 300 300 300 301 302 302 303 304 303 304 305 306 306 308 309 311 314 315 313 310 309
292 292 293 292 297 300 301 301 299 300 298 298 298 298 299 300 299 300 299 299 300 300 300 300 300 301 300 300 303 304 304 307 306 305 305 305 306 311 312 313 312 312 307 305
292 292 292 293 298 300 299 301 297 300 299 296 295 299 300 299 299 299 299 300 300 299 300 299 299 301 301 301 304 305 303 307 307 307 308 306 309 310 306 306 307 307 304 303
292 291 291 293 299 299 299 298 299 299 300 298 298 298 300 299 297 299 299 299 301 301 302 301 301 301 301 301 301 301 303 306 310 313 311 312 309 305 303 302 301 301 302 301
293 291 291 295 298 299 298 298 299 300 297 297 299 302 300 301 299 293 299 300 301 302 301 302 303 302 302 302 302 302 304 307 311 312 311 307 305 302 301 300 298 298 298 299
293 290 290 295 298 298 298 298 299 299 297 299 300 300 300 300 299 297 299 302 300 302 302 304 304 307 306 306 304 307 306 308 310 313 310 307 304 300 299 303 297 296 295 295
290 291 293 296 297 297 297 297 298 299 297 298 299 298 298 297 295 296 300 300 303 302 302 303 305 309 309 308 308 306 306 308 309 311 309 307 301 296 297 299 296 295 293 291
292 293 294 296 296 296 296 296 297 297 298 299 299 297 297 299 297 296 297 298 300 300 298 300 304 308 306 307 308 305 304 305 304 307 306 303 295 295 299 299 296 293 291 289
293 294 293 295 296 297 297 295 295 295 296 297 298 300 298 296 298 294 298 298 299 298 298 301 302 306 306 305 304 305 303 304 302 302 302 302 293 295 297 295 293 291 289 287
293 294 292 294 294 295 296 296 296 296 295 297 298 296 297 295 295 298 299 300 298 299 297 299 300 303 302 303 304 302 301 301 299 299 297 293 291 291 291 291 291 290 288 287
293 293 293 294 295 295 296 296 296 296 297 298 300 298 298 298 297 297 299 300 299 299 300 299 300 305 301 305 299 298 296 298 297 296 294 293 292 290 289 289 289 288 287 287
292 291 293 294 295 295 296 296 296 297 297 295 299 299 299 299 298 297 297 298 299 299 300 300 300 302 302 302 298 294 295 295 296 294 292 291 290 289 288 288 287 287 286 286
291 291 291 293 294 293 294 296 296 296 296 295 296 298 299 299 298 298 298 298 299 299 298 296 301 301 301 298 296 294 295 294 294 294 292 290 289 288 288 287 287 286 286 285
293 292 291 291 292 293 294 296 296 296 296 296 291 297 298 299 299 300 300 299 299 299 299 298 300 302 300 298 295 294 293 294 293 291 292 289 288 287 287 287 286 286 285 285
292 292 291 292 293 295 296 297 297 297 296 296 296 295 300 300 300 300 300 300 299 300 300 299 301 301 299 289 287 294 294 292 291 290 290 288 288 287 286 286 285 285 285 284
291 291 293 293 294 296 296 296 296 296 296 297 292 294 297 300 300 300 301 300 300 299 299 300 300 300 295 288 292 293 293 292 292 291 291 289 287 287 286 285 285 284 283 283
293 293 293 294 294 295 296 296 296 296 297 297 296 292 296 301 301 301 301 300 292 299 296 299 300 299 293 289 292 292 292 292 290 289 289 289 288 286 285 285 284 284 283 283
293 293 294 294 295 296 296 296 296 296 297 297 295 297 294 301 300 299 299 300 295 299 298 301 296 294 293 293 293 293 292 292 292 290 289 288 287 286 285 285 284 284 284 283
294 294 295 295 295 297 296 296 296 295 295 296 296 296 293 299 295 294 300 293 295 298 299 301 300 295 292 292 292 292 292 292 292 290 290 289 289 287 286 285 284 284 282 281
294 296 296 296 297 296 296 295 294 296 295 296 298 297 298 300 301 299 300 296 295 298 301 302 300 292 291 291 290 291 291 291 291 291 289 288 287 286 286 285 284 281 280 279
296 296 296 296 295 296 296 293 295 290 297 299 299 293 300 300 300 298 295 298 293 301 300 302 294 290 290 289 289 289 289 289 289 288 288 287 286 285 285 283 281 280 280 279
295 296 295 295 294 296 291 290 289 299 301 300 298 298 300 300 296 293 298 295 300 301 297 297 291 289 289 288 288 288 288 288 287 287 286 285 285 284 283 282 281 281 280 280
294 296 295 294 296 297 299 300 301 300 300 299 299 299 300 292 297 298 299 299 301 296 294 292 291 289 289 288 288 287 287 286 286 286 285 285 284 283 282 281 281 280 279 278
294 295 298 298 297 297 298 299 299 299 299 299 301 293 291 292 292 299 296 298 295 295 293 292 291 290 289 288 287 287 286 286 285 285 285 284 283 282 282 282 280 279 278 279
294 297 296 297 297 297 297 298 297 298 298 296 295 295 294 296 297 297 294 292 293 293 292 292 291 291 289 288 287 286 286 285 284 284 283 282 282 282 282 280 279 279 280 279

GFSNW_850_thetae_105.txt.gz
Theta_e
303 301 301 298 295 294 299 301 300 298 302 301 301 301 302 299 299 299 299 299 300 300 299 299 299 300 299 300 301 301 301 300 302 301 301 302 303 306 312 313 312 312 313 308
301 300 298 293 293 296 301 299 299 297 301 299 300 301 300 300 300 300 299 300 299 299 299 300 301 300 301 301 301 301 302 302 300 302 308 307 309 309 309 314 314 313 313 308
300 296 295 292 297 300 301 298 297 299 301 299 299 299 299 300 299 299 299 299 299 300 300 299 299 300 299 301 301 302 302 300 301 301 303 304 306 307 307 311 315 310 309 303
298 293 292 293 298 301 301 301 297 299 298 298 298 298 299 299 299 299 298 299 300 299 299 299 299 299 298 299 300 302 304 305 304 303 303 304 306 308 309 310 312 308 304 301
292 292 292 295 299 300 300 300 298 300 297 297 297 299 299 299 299 299 299 299 299 299 299 299 298 299 299 299 301 304 303 302 304 305 305 307 304 302 302 305 306 305 301 298
292 293 292 297 300 300 299 299 299 299 297 296 298 298 299 299 297 299 299 299 299 300 301 301 301 300 300 301 301 302 302 302 306 310 308 305 299 301 300 300 298 300 302 297
292 292 293 297 299 299 299 299 299 298 297 297 299 301 300 299 298 294 299 299 300 301 301 301 301 301 301 301 302 302 303 304 306 311 309 305 302 300 299 297 296 296 297 294
291 291 293 298 299 299 299 299 299 299 297 298 299 301 300 298 299 297 297 300 300 301 302 303 302 303 305 305 304 306 304 304 310 311 306 304 305 298 298 300 296 294 293 293
291 291 296 298 298 298 298 298 299 299 298 298 299 297 298 296 295 297 298 299 300 300 301 303 304 308 306 308 308 304 304 305 309 308 308 306 299 294 295 298 295 293 291 290
290 293 296 297 297 297 297 297 299 299 298 298 298 297 297 298 296 296 296 298 300 299 297 303 304 307 305 304 304 305 304 305 304 305 305 301 293 293 298 298 296 291 289 287
292 295 296 296 296 295 296 296 297 297 298 298 299 299 297 296 297 293 297 296 297 297 298 301 301 302 304 303 302 303 301 302 301 302 303 303 291 294 297 294 291 289 287 286
293 294 296 296 296 297 296 295 295 296 297 297 298 296 296 295 295 298 299 298 297 298 297 299 300 300 300 299 299 300 300 298 298 297 295 291 290 290 291 292 289 288 287 286
293 293 294 295 296 296 296 295 295 296 298 299 299 298 298 298 296 298 299 300 298 299 299 298 299 302 301 303 298 297 296 296 295 294 292 292 290 289 289 289 288 287 286 286
293 292 293 294 295 296 296 296 296 297 297 296 298 299 298 298 298 297 297 297 298 299 299 298 297 302 301 301 296 294 294 294 294 293 291 290 289 288 288 287 287 287 286 285
292 294 294 294 295 296 296 296 296 296 296 294 296 298 299 299 297 297 298 298 298 299 297 296 301 301 301 295 294 292 295 293 291 293 291 290 289 288 287 287 286 286 285 284
291 292 294 294 294 294 296 296 296 295 296 295 291 297 298 298 299 299 299 299 299 299 299 297 299 302 299 297 294 294 293 293 293 291 291 290 288 288 287 287 286 285 285 284
292 291 291 292 293 294 296 296 296 296 295 296 292 295 298 299 299 299 300 300 299 299 299 298 300 300 297 292 292 294 291 291 291 290 289 287 287 286 286 286 285 285 284 284
291 291 292 294 296 296 296 296 296 296 296 297 290 294 298 299 299 299 300 299 300 299 298 299 299 298 292 291 292 292 291 290 290 291 291 289 287 286 286 285 284 284 283 283
292 293 294 295 296 295 296 296 295 296 296 296 293 292 298 300 300 300 300 300 292 298 295 297 300 297 293 288 292 291 292 291 290 289 288 287 286 285 285 284 283 284 283 283
293 294 294 295 295 295 295 296 296 296 297 296 293 295 293 300 299 297 298 298 294 298 297 299 295 293 292 292 293 292 292 290 289 288 288 287 286 285 284 284 284 285 284 283
293 294 295 295 296 296 296 295 295 295 294 296 296 296 292 298 294 293 299 292 293 297 299 300 298 294 292 292 292 292 292 290 290 290 289 288 288 286 286 284 284 284 283 282
294 296 295 296 296 296 296 294 294 295 295 295 296 296 296 298 300 298 298 295 293 296 300 301 298 290 292 291 292 292 292 292 291 290 289 288 287 287 286 286 285 283 282 281
296 296 295 295 296 295 295 292 295 289 296 297 298 291 298 299 299 297 294 293 291 298 298 301 293 291 290 291 291 291 291 291 291 289 289 288 287 286 286 285 283 282 281 281
295 294 295 295 293 296 288 289 288 297 299 299 298 298 299 299 295 288 291 293 298 294 296 297 288 290 290 290 290 290 289 289 289 289 288 287 286 285 284 282 281 281 280 280
294 295 294 293 294 295 296 299 300 299 299 298 298 298 298 291 296 297 296 297 298 293 292 287 290 290 289 289 289 289 289 288 288 287 287 286 285 284 283 282 281 280 280 279
293 294 295 296 296 297 298 299 299 299 299 300 299 293 292 294 290 298 293 294 293 290 286 293 291 290 290 289 289 288 288 287 287 286 286 285 284 283 282 282 281 280 279 279
293 296 295 296 296 297 297 298 298 298 298 291 295 291 293 293 295 297 292 289 290 293 293 294 293 292 290 289 288 287 287 286 286 286 285 283 282 281 282 281 280 279 279 280

GFSNW_850_thetae_108.txt.gz
Theta_e
312 312 312 307 305 303 294 298 296 297 297 301 300 300 302 299 299 299 300 300 300 299 299 299 299 300 299 300 300 300 300 299 302 301 301 301 301 303 304 304 312 311 309 306
312 308 306 304 302 296 299 299 298 299 301 301 300 301 300 300 300 300 299 300 299 298 298 299 299 300 300 300 300 301 301 301 299 301 305 307 306 307 309 308 307 313 306 303
306 305 304 302 299 298 299 297 297 298 300 300 300 300 300 300 299 299 298 299 299 299 299 299 299 300 299 300 300 301 301 300 299 300 300 301 303 305 306 307 308 308 304 303
302 302 301 298 295 298 299 298 296 299 300 296 298 299 300 300 299 299 298 298 299 299 299 299 299 298 296 297 300 300 300 302 301 302 302 303 305 304 302 310 310 308 303 299
300 300 297 296 298 300 300 299 298 299 297 298 299 300 299 299 299 299 298 298 298 298 299 299 297 298 298 297 299 302 304 302 303 302 303 305 301 301 299 299 302 300 298 296
299 296 295 296 300 300 300 299 299 298 296 297 297 298 299 299 297 299 299 298 298 299 299 299 299 299 300 301 302 302 302 302 303 306 304 303 302 300 299 297 297 299 301 296
296 292 296 299 300 300 299 300 299 298 297 297 299 300 299 298 297 293 299 299 299 300 300 301 301 300 300 300 301 301 302 303 304 307 305 305 300 300 297 296 295 295 295 293
292 293 297 299 300 299 299 300 299 298 295 297 300 300 299 298 299 296 297 299 300 300 301 302 302 303 304 304 303 304 302 303 305 310 305 301 302 297 297 299 295 293 293 293
292 295 298 299 300 299 299 300 299 299 298 298 299 298 297 296 295 296 298 298 299 299 298 301 301 304 305 307 307 303 304 304 306 308 307 305 298 294 294 296 294 291 290 290
293 296 298 298 298 298 299 299 298 299 298 298 298 296 297 297 296 295 296 298 298 298 295 298 302 305 304 303 303 304 304 305 304 306 304 299 293 292 295 300 295 290 288 286
296 297 298 298 298 297 298 298 299 299 298 298 299 298 297 296 296 292 296 295 296 296 297 300 300 301 300 303 301 301 300 301 300 301 303 302 291 294 297 292 289 288 286 285
296 296 296 296 295 295 296 297 297 299 298 298 297 296 295 295 295 298 298 296 296 297 297 299 298 300 301 297 298 298 300 296 297 295 294 291 289 290 291 291 288 286 286 285
296 296 296 296 296 295 295 295 297 297 297 297 298 297 296 295 298 298 299 298 298 298 298 298 297 301 302 301 297 297 296 295 294 293 292 290 289 288 289 289 288 287 286 285
294 295 295 296 296 296 295 295 296 297 298 296 297 298 298 298 296 296 297 297 298 298 299 297 298 299 301 297 295 294 293 294 294 292 291 289 288 287 287 287 287 287 286 286
292 294 294 295 296 296 295 295 297 297 297 295 297 298 298 298 297 297 297 298 298 298 297 295 301 300 299 293 294 291 294 294 290 288 289 288 288 287 287 287 286 286 286 285
294 294 294 295 296 296 295 295 295 296 297 298 292 297 298 298 299 299 299 299 299 298 298 296 299 301 298 289 293 293 292 292 292 291 290 289 288 287 287 287 286 285 285 285
294 294 294 294 295 295 296 296 295 295 296 297 292 296 298 298 298 299 299 299 298 299 298 297 300 299 297 286 290 292 289 290 292 291 289 287 287 286 287 286 285 285 285 284
291 292 292 294 295 296 296 296 295 295 296 295 290 295 299 298 299 298 299 299 299 298 297 298 299 297 292 291 291 290 290 290 289 290 291 289 287 287 286 286 285 285 284 283
291 294 296 296 296 296 296 295 295 296 296 295 292 294 297 299 298 299 299 299 292 297 294 296 300 296 291 288 292 291 290 290 290 289 289 288 287 286 285 285 284 284 283 283
293 294 294 295 296 296 295 295 296 296 296 296 292 294 298 299 298 296 297 297 293 298 299 298 295 291 292 292 292 292 291 291 290 287 286 286 286 285 285 285 284 284 284 282
294 295 295 295 295 296 295 295 293 294 292 295 295 295 294 298 293 297 297 294 294 296 297 299 296 293 292 292 292 292 292 290 290 289 289 288 288 287 286 285 284 284 283 281
295 295 295 295 295 295 294 294 293 294 294 294 295 296 296 298 300 297 297 294 292 295 298 299 298 290 292 292 292 292 291 290 290 290 289 288 288 287 286 285 284 283 281 280
295 295 295 295 295 294 290 291 294 289 294 295 297 291 297 299 298 295 293 290 290 296 299 300 292 292 291 292 292 292 291 291 291 290 289 288 287 286 285 285 283 281 281 280
294 294 294 292 292 295 288 289 287 295 296 298 298 297 298 297 294 286 290 290 294 290 294 296 288 291 291 291 292 292 291 291 292 290 289 288 287 286 284 283 281 281 280 279
294 295 295 293 294 295 296 297 298 297 297 298 297 296 296 292 294 293 291 294 292 291 292 286 291 291 291 291 291 291 290 290 289 289 288 287 286 285 283 281 281 281 279 278
293 294 295 295 295 296 298 298 298 298 298 299 298 295 293 294 289 297 291 294 292 289 286 293 291 291 291 290 290 289 289 288 288 287 286 286 285 283 282 281 281 280 279 279
293 294 295 296 296 296 297 298 298 298 298 289 294 291 292 292 295 295 291 288 285 294 293 294 292 292 290 289 289 288 288 287 286 286 285 284 283 282 282 281 279 279 279 279

GFSNW_850_thetae_111.txt.gz
Theta_e
306 307 312 313 312 311 305 299 299 297 298 301 299 300 301 299 299 299 299 300 299 299 299 299 299 299 299 299 300 300 301 302 302 301 301 302 301 302 304 305 307 308 309 308
308 310 310 312 312 310 303 298 298 299 299 300 300 301 300 300 300 300 300 300 300 299 299 299 300 300 300 299 300 301 302 302 301 302 305 306 304 304 306 308 305 306 308 306
309 312 310 312 311 307 306 297 298 298 299 300 300 301 300 300 299 299 299 299 299 299 299 299 299 300 300 299 299 301 302 301 301 299 299 300 302 304 304 306 308 307 307 300
311 310 311 312 308 303 303 298 298 299 299 299 300 300 301 300 300 299 298 299 299 299 299 299 299 299 298 297 299 300 302 301 301 301 301 302 304 303 302 301 305 308 301 297
311 311 311 306 301 299 299 298 298 299 299 298 299 301 300 300 299 299 298 299 299 299 299 299 299 299 299 300 300 302 302 303 301 300 302 303 301 300 301 299 301 299 297 295
307 309 305 299 298 299 299 298 299 299 300 299 300 300 300 300 299 298 299 299 299 299 300 299 299 299 300 301 301 303 302 303 303 305 303 302 304 300 299 298 297 300 301 295
301 303 299 299 299 299 299 299 298 298 298 299 299 299 299 299 298 298 299 299 300 300 300 300 300 299 299 300 301 301 303 303 304 306 304 307 301 298 297 296 295 296 295 293
301 300 299 299 299 299 299 298 299 297 298 299 300 299 299 298 298 298 297 298 300 300 300 302 303 303 302 302 301 303 301 303 304 308 306 302 301 298 298 299 295 293 294 294
297 297 298 299 299 299 299 299 298 298 299 299 299 298 298 298 297 297 298 299 299 299 300 301 303 305 304 306 307 305 304 303 304 305 306 305 299 294 294 296 299 292 291 291
296 297 298 299 299 298 299 299 298 298 297 297 298 298 298 297 296 297 296 298 298 298 299 302 304 305 304 304 303 303 303 304 305 307 304 300 294 292 295 302 299 289 288 288
297 298 299 299 299 298 299 299 298 299 297 298 298 298 298 296 296 297 295 298 297 298 300 302 302 302 302 303 300 302 301 301 301 303 303 303 291 295 299 293 289 287 286 284
298 298 298 298 298 298 298 298 299 299 299 297 296 296 296 294 295 298 297 296 297 297 299 300 300 301 301 300 302 298 301 297 298 296 296 291 290 291 291 290 288 286 285 285
297 297 297 296 296 297 298 298 298 298 296 297 296 295 294 297 298 298 297 297 298 298 298 300 301 301 302 302 299 299 297 295 294 294 291 290 289 288 288 288 287 286 286 285
296 296 295 295 295 295 297 298 298 297 297 296 297 298 297 296 296 296 297 298 298 298 299 299 301 301 300 298 297 296 295 295 294 292 290 289 288 288 286 287 287 286 285 285
295 296 296 295 295 295 297 297 297 297 296 297 297 298 298 297 296 296 298 298 298 298 298 299 301 300 298 295 295 295 295 294 294 295 290 290 288 287 287 287 286 286 286 285
294 295 296 295 295 295 296 296 296 297 297 297 297 297 297 297 298 298 298 298 298 298 297 297 299 299 298 296 297 293 292 292 292 290 290 289 288 287 286 286 285 285 285 285
294 295 296 296 296 295 296 295 296 297 297 298 296 297 298 298 298 299 299 299 298 298 297 298 301 298 296 293 297 292 290 290 290 290 288 287 286 286 286 286 285 285 285 284
294 294 295 295 296 296 295 295 295 295 296 297 295 297 298 298 298 298 298 298 298 297 296 297 299 296 294 296 290 289 289 289 289 289 290 288 287 286 285 286 285 285 284 283
293 295 296 296 296 295 295 295 295 295 295 294 293 298 297 298 297 298 298 298 298 296 298 298 299 299 298 293 291 289 289 290 290 289 288 287 286 285 285 285 285 286 284 282
296 295 296 295 295 295 295 296 296 295 295 296 294 294 298 298 296 296 297 296 298 300 299 298 299 298 293 292 291 291 290 291 290 288 286 286 285 285 285 285 286 285 284 282
294 295 295 295 295 295 295 294 293 293 294 295 294 295 298 298 298 299 296 298 297 299 300 300 300 298 293 292 292 292 291 291 290 289 288 288 288 286 286 285 285 285 283 281
295 295 295 295 295 295 293 293 293 294 295 293 295 295 296 298 299 299 297 297 296 298 298 301 301 294 291 292 292 292 291 290 289 289 289 288 287 287 286 285 286 284 282 281
295 295 295 295 294 292 290 291 295 294 293 295 295 295 297 298 297 294 295 295 296 295 298 300 297 292 291 291 292 292 290 290 290 289 288 288 287 286 286 286 285 283 281 280
294 294 293 290 293 293 291 292 291 293 295 296 297 295 297 296 295 291 295 293 296 296 297 298 294 292 292 292 292 292 291 290 290 290 289 288 287 286 285 285 283 281 281 280
294 295 294 293 293 294 295 296 296 296 296 297 297 296 296 294 294 294 293 296 296 295 297 294 292 291 292 292 292 292 292 291 291 290 289 288 287 286 285 282 281 281 280 279
293 294 295 294 295 296 298 297 296 297 298 298 297 297 294 294 293 297 293 295 296 296 291 293 292 291 291 291 292 292 291 290 290 289 288 288 287 286 284 282 281 280 279 278
293 293 295 296 296 296 297 297 297 297 298 295 295 292 294 294 294 295 293 296 294 292 293 293 292 292 291 291 291 290 289 289 288 288 287 286 285 283 282 282 281 279 279 278

GFSNW_850_thetae_114.txt.gz
Theta_e
298 301 303 306 308 310 310 303 300 298 300 301 301 305 304 302 301 300 301 302 302 302 302 302 301 301 301 300 302 301 302 303 303 303 303 303 303 304 305 307 309 308 310 310
296 299 303 307 307 310 307 299 296 297 299 304 304 303 302 301 301 301 301 302 302 301 301 302 302 301 301 301 301 301 303 303 304 304 307 306 307 305 304 306 308 309 310 309
296 300 304 308 308 308 307 299 301 297 298 302 304 304 303 301 301 301 301 301 301 301 302 301 301 300 301 301 301 301 303 303 303 305 302 302 303 306 306 306 309 309 311 304
297 302 304 307 307 309 308 301 301 301 303 302 303 303 303 301 301 301 300 300 302 302 301 301 300 301 301 300 301 301 303 302 304 303 303 303 305 305 305 304 304 306 306 302
298 302 304 306 307 308 307 300 301 300 302 301 303 303 302 301 301 300 301 302 302 301 300 301 301 301 302 303 302 302 302 303 304 304 305 305 306 302 304 302 300 301 300 298
301 303 306 306 306 307 301 300 301 302 301 303 303 304 302 302 302 301 301 301 301 301 301 301 301 301 302 303 303 304 305 304 306 308 304 305 306 302 301 300 300 302 306 298
303 307 307 306 305 305 305 301 302 303 302 303 302 301 301 301 302 305 301 301 302 302 301 302 302 302 302 302 302 302 304 304 306 307 306 310 302 299 299 299 298 298 297 296
307 308 302 301 302 302 302 300 301 301 302 301 301 301 301 301 301 301 302 301 302 301 302 303 305 305 303 303 302 303 303 305 307 308 308 304 302 300 301 302 298 296 297 296
303 300 299 300 300 299 299 300 300 301 302 302 301 302 301 302 302 301 301 300 301 301 304 304 307 308 308 308 307 303 305 304 306 307 308 309 303 298 297 299 303 295 295 296
299 299 299 299 299 298 299 299 299 300 300 300 300 302 301 301 301 301 301 300 301 301 305 306 307 307 306 307 307 307 307 307 306 307 310 304 297 296 297 304 302 293 294 294
299 298 298 299 300 299 299 298 299 300 300 299 299 299 299 299 300 302 300 301 301 302 305 306 306 305 305 305 303 304 305 307 308 307 308 307 294 297 302 296 292 291 291 290
299 299 299 299 299 299 299 298 298 299 300 297 298 297 297 298 298 300 300 301 302 303 305 304 304 303 303 304 305 300 304 302 304 301 301 293 293 294 293 293 291 290 289 287
298 298 298 298 298 299 299 298 298 298 297 297 297 297 297 298 298 300 301 300 301 301 302 303 303 303 303 304 303 301 299 296 298 298 294 293 291 291 292 291 290 289 287 286
297 298 298 298 298 298 298 299 298 298 298 299 297 297 297 296 297 297 299 300 299 301 302 303 303 303 303 303 302 302 299 297 297 294 292 291 291 290 289 288 287 286 285 285
295 295 295 296 298 298 298 297 297 297 299 299 298 297 296 297 298 298 299 300 300 301 303 303 302 300 301 300 300 301 297 298 299 302 294 295 291 289 288 287 286 286 285 284
295 295 295 296 297 298 298 297 297 297 298 298 300 297 298 298 299 299 299 299 299 301 302 302 301 301 302 303 304 295 294 293 294 294 292 292 289 288 288 287 286 286 286 285
295 295 296 296 297 297 296 298 297 297 297 299 299 299 298 299 299 299 299 299 299 300 301 302 302 302 300 303 304 294 292 291 292 291 290 289 288 288 288 287 286 286 285 284
295 295 295 295 295 295 296 296 297 297 297 299 300 299 299 298 299 300 299 300 300 299 300 301 302 301 301 302 294 292 291 291 291 291 291 290 289 288 287 287 286 285 284 283
295 296 295 295 295 296 295 295 295 295 297 299 299 300 301 299 299 300 300 300 301 299 301 302 301 302 303 300 293 292 291 292 291 290 290 289 288 288 287 286 285 285 283 281
296 296 296 295 295 295 295 295 296 296 297 298 300 298 300 300 301 301 301 301 301 302 302 301 302 302 296 295 294 293 292 292 290 290 289 289 288 287 287 286 286 284 282 281
295 296 295 295 295 295 296 297 298 297 299 298 298 299 301 299 302 302 301 302 301 301 302 301 302 303 298 294 293 292 292 291 291 291 290 289 288 287 286 285 284 283 281 282
295 296 295 295 296 296 297 296 296 299 299 297 300 299 300 300 300 302 300 301 301 302 300 302 302 301 295 294 293 292 292 290 290 290 289 289 287 286 286 284 283 283 283 282
296 296 295 296 295 298 298 297 298 299 298 297 298 300 300 300 300 300 300 300 301 299 300 302 302 296 294 294 293 292 291 290 289 288 288 287 286 286 286 286 285 283 283 282
295 296 296 296 297 297 298 299 299 295 297 298 300 299 301 299 300 299 300 299 299 301 301 302 301 295 293 292 292 291 290 289 289 288 288 287 287 286 286 285 285 283 282 281
296 297 297 297 296 296 295 296 296 295 297 299 299 299 299 299 299 299 299 299 300 301 302 302 297 294 292 292 292 291 290 289 290 289 288 287 287 286 285 284 282 281 281 280
295 296 297 296 299 298 297 297 297 296 297 298 299 299 298 297 299 299 299 300 301 303 300 296 292 291 292 292 292 292 291 290 290 290 288 288 287 286 285 282 281 281 280 279
295 296 295 296 297 297 297 297 297 297 299 300 299 300 298 297 298 299 299 302 302 297 295 293 291 291 291 292 292 292 291 291 290 289 288 287 286 285 283 282 281 280 279 278

GFSNW_850_thetae_117.txt.gz
Theta_e
296 297 298 302 303 307 308 303 302 300 299 301 301 311 311 309 308 304 305 306 308 307 307 306 306 305 304 303 304 304 304 305 305 304 304 305 305 306 306 307 307 310 309 312
296 295 297 300 303 306 306 300 297 299 300 307 309 310 310 308 307 305 305 305 306 306 306 305 305 305 304 302 303 303 304 303 303 305 306 307 308 307 305 307 309 310 312 311
295 295 296 299 302 306 306 300 300 298 298 300 310 310 309 307 305 305 305 305 304 305 304 304 305 305 303 302 302 302 303 304 305 307 306 306 307 307 307 307 308 308 310 309
296 296 295 297 301 306 306 301 302 302 302 301 307 308 309 308 305 304 304 304 304 304 304 305 305 304 303 303 302 302 302 304 305 304 304 304 305 307 307 308 308 310 309 305
296 296 296 296 301 306 306 303 306 303 307 303 305 308 309 308 305 305 304 304 303 304 305 305 304 303 304 303 302 303 304 303 305 305 306 307 309 308 307 307 306 303 304 301
297 297 297 296 301 305 306 305 307 305 306 305 307 309 309 308 306 303 302 302 304 305 305 303 302 303 303 304 305 303 305 306 306 309 307 307 309 306 305 305 302 304 305 300
300 298 297 297 302 305 306 306 305 307 307 308 307 308 307 306 305 306 302 303 305 304 303 303 303 303 304 304 305 304 307 306 307 309 307 310 304 302 303 303 302 301 299 299
299 297 298 298 303 305 305 305 305 307 308 308 307 307 306 303 302 302 304 303 304 303 303 305 305 305 305 305 304 304 306 306 309 309 310 307 303 302 302 302 301 301 300 297
299 299 299 300 302 305 305 304 305 307 309 308 306 306 303 303 305 304 304 303 303 303 305 305 307 309 308 309 306 305 305 305 307 309 309 311 306 303 301 302 305 299 299 298
300 300 301 302 304 304 303 303 303 305 305 304 303 304 304 304 304 304 303 303 303 303 305 306 308 309 308 310 309 308 307 308 308 308 310 307 302 300 300 306 304 298 299 298
300 300 304 304 303 302 302 302 303 304 303 302 302 303 303 303 303 304 303 303 303 304 305 308 308 309 308 309 308 308 309 310 310 308 311 311 298 300 303 299 297 297 297 294
302 302 302 302 301 300 302 301 302 301 302 302 301 301 302 302 303 303 302 304 304 304 306 308 308 307 306 308 308 304 307 306 307 304 303 296 296 298 297 296 296 295 293 291
299 299 300 300 300 301 299 300 301 300 300 300 301 300 299 300 302 303 303 303 304 305 306 306 306 305 306 308 307 305 302 300 304 301 297 295 295 295 296 295 294 293 291 290
299 299 298 298 298 299 299 300 301 300 300 301 299 299 299 300 300 302 304 304 303 304 305 304 305 305 305 306 306 305 303 301 301 298 295 294 294 294 293 292 291 290 289 289
298 298 298 298 299 299 299 300 300 300 300 300 299 299 299 300 301 301 302 304 304 305 305 304 304 303 303 303 305 305 301 303 302 305 296 297 294 292 291 290 289 289 288 287
297 298 298 298 298 298 299 299 300 299 298 298 301 298 299 299 300 301 302 303 303 304 305 303 303 302 303 304 306 299 297 296 297 297 296 294 291 291 291 290 289 289 288 287
297 297 298 298 298 299 300 301 299 300 300 299 300 300 299 300 300 300 300 301 302 303 304 304 303 303 302 304 305 297 295 294 296 295 293 291 291 291 290 290 289 289 288 287
297 297 297 297 297 298 298 298 298 300 300 301 302 301 300 300 300 301 301 301 301 301 302 303 304 303 303 303 298 295 294 294 294 293 294 292 292 290 290 290 289 288 288 286
296 296 296 296 299 298 297 296 296 298 301 301 301 302 302 301 301 301 301 301 303 301 303 303 303 305 304 303 296 294 294 294 293 293 293 292 291 291 290 290 289 288 287 285
295 296 296 296 298 295 296 300 297 301 301 300 303 301 302 301 301 302 302 301 303 304 303 302 303 305 300 299 297 295 294 295 294 293 293 292 291 291 290 289 289 288 286 284
299 299 298 296 296 299 300 301 301 301 301 300 300 300 303 301 303 303 302 303 302 301 304 302 303 304 301 298 297 296 295 294 293 293 293 292 291 291 290 289 288 286 284 283
297 297 298 298 299 299 301 300 300 301 301 300 302 301 301 302 302 303 303 302 303 304 302 302 303 302 298 297 296 295 294 293 293 293 292 291 291 290 289 288 287 284 283 283
298 299 297 299 298 301 302 300 301 301 300 301 301 303 302 302 302 302 302 302 303 302 302 303 304 300 298 296 295 294 293 292 291 292 291 290 289 288 287 286 284 285 284 282
299 299 298 300 300 299 300 303 302 299 300 302 302 302 302 301 302 302 302 301 301 302 303 304 304 298 296 295 294 293 292 290 290 289 289 288 287 287 286 286 286 284 283 281
298 298 299 299 298 297 296 297 298 300 301 301 301 301 301 301 301 301 301 300 302 302 304 303 298 296 294 294 293 292 291 289 289 288 287 287 287 286 286 285 284 283 281 281
297 297 300 299 299 298 298 298 299 300 301 301 301 301 300 299 301 301 302 302 302 304 301 296 294 294 293 293 292 291 290 290 289 289 288 287 287 286 286 285 283 281 281 280
297 297 296 298 298 298 297 299 300 301 301 302 301 302 299 300 300 301 302 303 301 297 295 294 293 292 292 292 291 291 290 290 290 289 288 287 286 286 285 283 281 281 280 279

GFSNW_850_thetae_120.txt.gz
Theta_e
296 297 299 297 299 302 305 305 303 302 304 302 300 309 312 311 314 313 310 310 310 311 310 311 311 309 309 305 305 305 305 305 306 306 306 306 305 305 306 308 306 306 308 311
295 297 297 298 298 303 305 303 299 300 301 305 305 308 311 313 313 312 308 308 308 310 310 309 309 308 305 304 305 305 305 304 305 304 305 305 304 306 307 307 309 308 310 310
293 294 295 298 298 303 305 302 300 298 300 301 306 310 312 312 311 311 308 307 308 309 308 308 307 307 306 304 303 302 304 304 306 305 306 306 308 310 308 308 309 308 309 306
294 293 295 297 297 302 304 302 302 301 301 302 304 309 310 312 313 308 307 307 308 307 307 307 306 306 306 304 303 303 303 303 305 304 303 303 305 306 306 309 308 310 310 307
295 294 295 297 297 300 304 303 306 303 307 303 304 305 312 312 311 308 307 307 307 307 306 306 306 306 306 305 304 303 303 303 306 304 304 305 306 307 306 308 309 308 306 305
294 294 295 296 296 300 303 304 305 306 306 306 305 307 310 311 311 309 306 307 307 306 305 305 306 304 304 305 304 304 305 307 304 305 308 308 309 310 310 309 307 306 306 302
295 295 295 296 296 298 303 304 306 306 309 307 307 307 309 310 311 309 306 306 305 305 305 304 304 304 304 304 305 305 307 306 304 308 309 309 306 304 305 306 304 304 300 298
295 295 295 296 296 296 303 305 306 307 310 309 308 307 309 309 308 306 306 304 304 305 304 305 304 305 305 305 306 306 307 306 308 309 309 308 304 303 304 303 303 303 300 298
296 295 295 295 296 296 300 305 306 307 309 310 308 309 309 310 307 305 304 305 305 304 305 306 306 306 306 307 306 305 306 306 307 308 311 311 306 303 303 303 305 302 299 298
296 296 296 295 296 297 298 304 305 306 309 308 308 310 310 308 306 305 305 305 305 304 306 307 306 308 308 310 308 307 306 306 308 307 308 308 304 303 303 306 305 301 299 298
297 297 296 296 298 297 297 303 305 306 307 307 308 308 307 305 305 306 305 304 304 305 306 306 306 310 311 310 309 307 307 307 308 307 309 310 301 301 303 301 300 300 298 297
299 298 297 298 297 298 300 304 304 305 305 304 304 304 304 304 304 305 304 304 304 305 305 307 310 310 309 309 309 308 309 308 308 303 304 298 299 300 300 299 299 297 294 291
299 298 298 298 298 299 302 302 304 305 302 301 302 302 303 304 304 304 304 305 304 305 305 309 308 308 307 308 308 308 305 303 305 302 298 297 297 298 298 297 295 294 292 290
299 299 299 300 299 301 302 303 304 304 302 302 300 301 301 303 304 304 305 304 305 306 307 307 307 308 306 308 308 307 305 302 303 299 297 295 296 296 295 293 293 291 291 290
300 301 301 301 301 302 302 302 301 303 301 301 300 300 301 301 301 304 304 304 305 305 306 306 306 305 305 305 306 307 303 304 303 305 298 298 296 294 293 292 291 290 290 289
300 300 300 300 301 301 301 301 301 301 300 300 301 300 301 302 303 303 304 305 306 305 306 305 304 303 304 306 306 301 299 298 300 300 297 296 294 292 292 291 291 290 290 289
299 299 300 299 300 300 300 301 301 300 300 300 301 300 301 301 302 302 303 303 304 305 305 305 303 304 303 305 305 299 296 296 298 296 294 293 292 292 291 291 291 290 289 288
299 299 300 300 300 300 300 300 300 300 301 301 304 301 301 301 301 301 301 302 302 303 304 304 305 303 303 303 300 296 295 297 296 295 295 293 292 292 291 291 290 289 288 287
298 299 299 299 299 299 300 300 301 302 302 303 302 303 302 301 302 301 303 302 305 302 304 304 304 306 306 304 299 296 295 296 295 295 294 293 292 292 291 291 291 289 288 286
297 298 297 298 298 298 298 300 297 303 301 302 304 301 303 303 302 302 302 302 304 303 304 304 303 305 302 302 299 296 296 296 295 295 294 293 292 292 291 291 291 289 287 285
297 299 298 299 299 301 301 302 303 302 302 302 303 302 304 302 306 304 303 304 303 302 304 303 303 304 302 300 298 297 297 296 295 295 294 293 292 292 291 291 290 289 286 284
299 297 298 300 301 301 301 301 302 303 301 301 304 303 302 304 303 303 303 302 303 303 304 303 302 302 301 299 298 296 296 295 295 295 293 293 292 292 291 290 289 287 285 284
299 299 299 300 300 302 302 300 302 302 302 303 302 304 302 303 303 302 303 303 304 302 302 303 304 300 299 298 296 295 295 294 294 293 293 292 291 291 290 289 287 286 285 284
300 300 299 302 300 299 301 304 303 301 302 303 303 303 302 302 302 304 302 302 302 302 303 304 303 300 297 296 295 294 293 292 292 292 291 291 290 289 289 288 287 286 284 283
299 299 300 300 297 297 298 300 302 302 302 302 303 303 302 303 301 302 300 300 301 302 304 302 298 297 296 295 294 293 292 291 291 291 290 290 289 288 288 287 286 284 283 282
298 298 300 298 299 299 300 301 302 302 302 302 301 302 300 301 302 301 302 302 303 303 299 296 295 295 295 294 294 293 292 290 290 289 289 288 288 287 287 286 285 283 282 281
298 298 297 298 297 298 299 301 302 302 302 303 302 302 300 301 301 301 303 303 300 297 295 294 294 294 294 293 293 292 291 289 289 289 288 287 287 287 286 285 283 282 281 280

GFSNW_850_thetae_123.txt.gz
Theta_e
296 296 296 296 297 299 302 304 305 304 307 302 301 307 309 310 311 312 313 313 309 311 311 310 310 310 310 306 305 304 304 304 303 305 305 305 304 304 305 302 304 305 305 303
294 294 295 297 298 299 303 304 301 302 304 306 304 305 308 310 311 312 313 314 309 308 308 309 309 307 305 304 304 304 304 303 302 303 304 306 307 308 308 308 306 306 305 302
293 293 293 296 298 298 302 302 299 300 301 301 304 306 308 311 310 312 312 311 307 307 307 308 307 306 305 304 303 303 303 304 303 303 304 304 303 304 306 309 309 304 303 299
293 293 293 294 297 298 302 302 300 300 299 301 303 307 308 309 312 310 312 312 307 307 307 306 306 306 304 304 304 303 301 302 300 302 303 303 303 302 303 303 305 305 301 303
295 294 293 293 296 297 301 302 303 300 302 302 303 306 309 310 311 312 309 309 306 306 305 305 305 305 304 302 303 303 302 300 297 296 303 303 303 303 303 302 303 302 301 302
295 294 294 293 295 296 299 301 303 303 303 302 303 305 306 309 309 311 308 307 306 306 306 305 304 304 304 304 303 302 301 299 296 300 305 308 304 301 303 303 305 306 306 301
294 295 294 294 294 295 299 302 302 305 303 302 303 304 305 307 310 306 310 307 305 305 304 304 304 303 304 304 304 303 300 299 301 302 303 307 300 303 304 305 305 301 298 297
294 295 296 295 294 295 297 302 303 305 304 305 304 304 304 306 308 309 307 306 306 305 304 304 304 303 304 305 304 304 302 301 300 302 305 305 304 303 304 303 304 301 299 297
295 295 296 295 294 295 297 299 304 305 303 304 306 305 306 305 307 306 305 304 304 304 303 303 304 306 306 305 305 306 304 302 301 305 309 310 305 304 303 303 303 302 298 295
295 295 296 294 294 295 296 298 302 305 306 305 308 306 305 308 305 304 305 305 305 304 303 305 305 306 306 308 307 306 306 305 305 304 306 305 303 303 303 304 301 300 297 295
296 296 295 294 295 295 296 298 300 304 305 306 307 308 307 308 305 303 304 303 303 304 304 305 305 305 304 309 308 305 306 304 304 304 307 307 301 301 303 300 301 300 297 295
297 296 295 295 295 296 296 298 299 303 305 304 305 304 307 308 306 305 304 304 304 304 304 304 304 305 305 307 310 306 306 304 303 303 301 298 299 300 300 300 299 297 298 296
297 296 295 294 294 295 296 297 300 302 304 302 304 304 305 305 305 305 304 304 303 304 304 305 306 306 306 307 306 305 303 303 300 298 297 297 298 298 298 299 298 297 297 296
297 297 295 295 295 295 296 297 302 303 302 301 301 302 303 304 304 305 304 304 304 304 305 305 303 305 306 303 304 304 301 301 299 297 296 296 296 297 296 296 296 294 293 293
297 296 296 295 295 296 297 298 302 304 303 301 300 301 301 304 305 305 304 305 305 306 304 303 303 303 302 300 301 299 301 296 297 295 296 296 295 295 295 294 292 291 290 288
297 297 296 296 297 298 299 301 302 302 302 300 299 300 301 302 303 304 304 304 305 305 305 303 304 303 303 299 300 300 299 298 300 299 299 297 295 294 293 293 291 290 289 288
298 298 298 298 298 299 301 301 302 301 301 300 300 300 301 302 303 304 304 305 305 305 305 303 303 303 302 301 297 298 298 297 298 298 296 293 293 292 292 292 291 290 289 288
298 298 299 300 300 301 301 300 300 301 300 300 300 301 301 302 302 302 303 302 303 303 304 303 302 302 302 295 298 297 296 296 296 296 295 294 293 292 291 291 290 289 289 287
301 300 299 299 300 300 300 300 300 301 301 301 300 300 300 301 302 301 302 301 298 301 300 301 302 298 298 297 298 296 296 296 295 295 294 292 292 291 291 291 289 288 287 287
299 299 299 299 300 300 301 301 301 301 302 301 300 301 301 301 301 301 301 302 300 299 299 303 298 296 302 302 300 297 296 296 295 294 293 292 292 291 291 290 289 288 287 286
298 298 299 300 300 299 298 301 301 302 300 302 301 301 302 302 299 298 302 297 297 300 300 299 298 298 298 300 298 296 296 296 295 295 293 293 292 291 291 291 290 288 287 285
298 299 300 300 301 301 300 299 300 301 300 301 300 301 303 303 303 300 301 299 297 299 300 296 296 300 300 298 297 296 296 295 295 295 294 292 292 292 291 291 290 288 286 285
298 298 300 299 299 297 298 297 300 298 301 302 303 300 303 303 302 301 298 297 296 301 292 296 298 300 299 298 297 296 295 295 295 294 293 293 292 292 291 291 289 288 286 285
299 299 295 297 298 297 301 300 298 301 302 302 302 302 300 302 297 296 295 297 297 295 295 302 299 299 298 297 296 295 294 294 293 293 293 293 292 291 291 290 289 288 286 284
299 299 297 296 297 298 300 302 302 302 302 302 301 300 301 296 296 296 296 297 295 296 298 299 298 298 297 296 295 295 294 293 292 292 292 292 291 291 290 289 288 288 286 284
298 298 297 298 299 300 301 301 302 302 302 301 300 297 294 297 297 298 296 299 299 300 297 297 296 296 295 295 294 294 293 292 292 291 291 290 290 290 289 288 288 287 284 283
298 298 298 298 298 299 300 301 301 302 301 296 298 297 299 297 297 299 298 298 298 296 295 294 294 294 294 294 294 293 292 291 290 290 290 289 289 288 288 287 286 284 283 281

GFSNW_850_thetae_129.txt.gz
Theta_e
300 299 298 298 299 299 302 303 303 304 306 305 302 306 308 309 310 310 310 311 312 311 308 309 306 307 307 305 303 303 302 302 302 303 303 302 303 303 303 303 304 303 303 304
299 299 298 297 298 299 300 303 302 304 306 306 304 304 306 308 309 309 309 310 310 310 308 308 307 305 303 303 302 302 302 301 301 304 302 303 303 305 304 305 302 305 301 301
299 299 298 297 297 298 299 301 301 302 301 304 304 304 306 308 307 308 309 311 311 310 306 306 306 304 304 303 304 304 303 301 303 306 304 302 302 303 304 302 301 304 302 300
300 298 298 297 297 297 298 300 301 301 301 303 304 303 304 306 307 308 309 309 310 308 308 307 305 304 302 302 303 301 300 302 297 300 302 302 302 302 302 300 302 302 301 301
297 298 298 297 297 297 297 299 299 300 299 302 302 304 304 304 306 307 308 308 309 308 307 304 305 304 303 303 302 301 299 300 293 292 300 301 301 301 300 299 300 299 297 301
296 297 297 297 296 295 296 298 300 300 300 299 303 302 303 304 304 305 306 307 307 308 309 307 306 307 307 305 302 301 298 295 294 298 302 302 301 302 301 300 300 301 301 300
295 295 296 296 296 295 296 298 300 300 299 300 301 302 302 302 303 302 307 306 305 306 306 304 304 303 302 302 301 300 296 295 297 298 300 300 299 301 301 301 301 300 299 296
295 295 294 294 295 295 294 297 299 300 299 300 301 301 302 302 303 305 305 306 307 308 305 305 303 301 302 302 301 300 297 298 299 302 301 300 303 303 303 303 302 299 297 296
294 294 294 293 293 294 294 294 297 299 301 300 301 301 302 301 302 302 305 305 306 306 302 301 304 304 302 303 303 300 299 298 300 302 302 304 303 304 303 301 298 297 297 293
293 293 292 292 293 294 294 295 294 298 298 301 301 301 301 302 301 300 303 304 304 304 302 305 304 304 303 304 304 303 301 299 302 303 304 304 302 302 302 299 299 297 295 292
293 293 292 292 293 294 295 295 295 296 298 301 302 303 303 302 302 299 302 304 304 302 304 304 302 301 303 303 304 304 304 303 303 304 304 304 302 301 302 299 299 298 295 293
292 292 291 292 292 294 295 295 295 295 296 298 301 303 304 303 303 303 305 303 301 302 303 301 302 304 300 301 302 305 306 304 303 303 303 298 300 299 300 300 300 298 296 294
292 292 291 292 293 294 295 295 295 295 297 296 297 301 304 304 305 304 304 302 303 302 303 299 301 300 302 305 303 305 304 302 302 303 300 298 299 299 300 300 300 299 298 297
293 293 292 292 294 295 295 295 295 296 297 298 301 302 303 304 305 305 305 305 303 304 303 302 301 305 304 302 304 304 301 302 302 300 295 297 298 299 299 299 299 298 297 297
293 293 293 293 294 294 295 295 295 296 297 298 301 302 304 304 304 305 304 305 304 304 302 303 305 303 303 299 301 301 300 301 300 300 298 299 298 299 298 298 299 298 297 294
294 294 293 293 293 294 297 296 295 296 297 297 300 301 303 304 304 304 304 305 304 304 303 301 302 303 301 296 299 299 301 300 300 300 300 298 297 297 297 297 297 297 296 296
295 294 294 293 294 296 296 296 296 297 298 298 299 301 302 304 304 304 304 304 304 304 303 301 301 301 301 294 297 298 300 300 299 299 299 296 296 297 296 296 296 295 293 293
295 294 294 294 296 296 295 297 297 298 299 299 299 300 302 302 302 302 303 303 304 303 303 301 300 300 298 296 295 299 299 298 298 297 296 297 297 295 294 294 293 292 291 289
295 294 295 296 296 296 297 299 297 298 299 299 298 298 300 301 301 301 302 301 299 300 299 300 300 296 298 296 298 299 300 299 298 295 295 295 295 294 293 292 291 290 288 287
297 296 296 296 296 296 299 298 298 298 299 299 296 299 299 301 300 300 300 299 299 300 299 300 297 296 300 301 301 301 300 298 296 295 292 292 292 292 291 290 291 290 288 286
296 297 298 296 298 298 299 298 299 299 299 299 299 299 300 301 301 300 300 298 298 300 298 298 297 297 296 300 300 300 298 297 296 295 295 294 293 291 291 290 290 289 288 287
299 298 298 299 298 299 299 298 296 297 300 299 297 300 301 301 301 300 299 300 296 298 294 295 294 292 298 299 298 297 296 296 295 295 294 294 293 291 291 291 290 289 288 287
299 299 299 299 296 291 295 293 297 294 297 299 300 299 301 301 301 297 297 295 294 294 294 296 293 296 298 297 296 296 295 295 295 295 294 293 292 291 291 291 290 289 288 287
298 296 291 295 291 294 295 297 296 298 300 300 300 298 301 299 297 291 294 293 295 291 292 296 289 298 298 297 296 296 295 295 295 294 294 293 292 292 291 291 290 289 288 287
297 296 293 293 296 297 298 299 299 300 301 301 299 297 298 295 294 294 294 295 293 293 293 293 295 297 298 297 296 296 296 295 294 294 294 293 292 292 291 291 290 290 288 287
297 297 297 298 299 299 299 299 299 300 301 300 298 294 292 293 294 295 292 296 294 290 289 296 296 296 297 296 296 296 295 295 294 293 293 293 292 292 291 291 290 289 289 288
296 295 297 297 298 298 298 300 300 300 300 294 295 293 295 294 293 297 296 290 287 294 294 296 296 296 296 295 295 295 295 294 293 292 292 292 291 291 290 290 289 288 287 287

GFSNW_850_thetae_132.txt.gz
Theta_e
300 301 300 300 300 300 302 304 302 304 306 306 304 307 308 308 309 309 309 309 311 311 308 307 306 306 306 304 303 303 302 304 303 303 302 302 302 302 302 302 304 302 303 304
299 300 300 299 299 299 302 303 302 304 307 306 306 305 307 307 308 309 309 310 309 310 308 310 307 306 303 303 302 302 302 303 302 304 302 302 302 302 302 303 303 303 300 303
297 298 300 300 299 299 300 300 302 302 304 305 304 305 307 308 307 308 309 310 310 307 307 306 306 303 303 302 304 304 303 302 303 306 305 302 303 303 304 303 301 304 303 303
295 296 298 299 298 298 299 300 301 300 302 303 303 303 304 306 307 307 308 308 310 309 309 306 305 303 302 302 302 301 302 303 298 300 302 302 302 302 302 302 303 302 302 301
294 296 297 299 298 298 299 299 300 299 299 302 302 304 304 304 305 306 307 308 308 307 307 306 306 304 302 302 301 301 299 301 295 295 300 300 300 300 300 300 301 300 299 300
294 294 296 299 298 298 298 298 299 300 299 299 302 302 303 303 303 305 306 306 307 307 307 307 307 306 305 305 303 302 301 300 300 302 301 301 300 298 299 298 299 299 300 300
294 294 295 297 298 298 298 298 299 299 299 300 302 302 301 302 303 301 305 305 305 305 306 304 304 303 303 303 301 301 297 299 300 301 300 302 300 299 300 301 301 299 299 298
294 294 295 295 297 297 297 297 299 299 299 299 300 301 301 301 302 303 303 303 306 306 305 304 303 301 302 302 301 299 297 299 300 303 301 302 301 301 302 302 303 301 299 294
294 294 294 295 297 297 297 297 298 299 298 299 300 300 301 300 300 300 302 306 306 306 299 304 306 307 305 303 302 298 299 297 300 301 303 302 299 302 302 300 299 298 297 294
294 294 295 296 296 297 296 296 298 298 298 299 300 300 300 301 300 299 301 304 302 303 300 304 305 304 303 303 303 302 300 297 301 302 303 302 301 302 301 300 300 297 297 294
294 294 295 295 296 296 296 295 295 296 297 298 300 301 301 301 301 299 301 302 303 299 305 305 304 302 302 302 302 302 302 302 299 302 304 303 301 301 302 299 299 299 297 295
294 295 295 295 295 295 296 296 295 294 295 297 298 300 302 301 301 301 303 302 302 302 301 299 299 299 297 300 301 303 304 301 301 303 302 300 302 301 302 301 301 299 299 296
293 294 294 294 293 293 294 295 295 295 295 295 295 296 301 303 303 302 302 302 303 303 303 299 300 300 300 302 300 304 303 302 301 302 301 299 300 300 300 300 300 301 300 298
292 294 294 293 292 293 294 295 295 295 295 294 296 298 298 300 300 304 303 303 303 304 302 300 299 300 301 297 301 300 299 301 302 300 300 299 301 300 300 300 300 300 299 298
292 293 293 293 292 292 294 294 295 295 295 295 296 297 298 302 303 304 304 304 304 303 301 302 301 301 303 301 301 303 300 301 304 302 301 301 299 299 300 300 299 299 299 296
291 292 292 292 292 292 294 295 295 294 295 296 299 299 298 299 304 304 305 304 304 303 303 302 303 304 303 299 302 300 303 303 303 301 300 299 298 299 299 298 298 298 297 297
292 292 292 292 292 293 296 295 296 294 295 297 297 297 302 303 303 303 303 303 304 303 301 300 300 301 303 292 296 300 301 302 300 300 299 298 298 298 298 297 297 296 296 295
292 292 292 292 294 295 295 296 296 295 296 297 298 299 299 302 303 302 303 303 303 302 303 300 299 299 297 299 297 299 300 300 299 299 298 297 297 297 296 295 295 295 294 293
293 293 293 294 295 295 296 297 295 295 297 298 298 299 301 301 300 302 301 301 301 300 299 300 300 296 299 299 298 298 299 299 299 296 296 296 295 295 294 294 293 293 291 290
294 294 294 295 295 295 297 298 297 297 298 299 296 298 301 301 300 299 299 299 300 302 300 299 297 298 300 300 300 300 300 299 298 296 294 294 293 293 293 293 292 292 291 289
295 295 297 296 295 297 297 297 298 298 299 298 298 298 300 300 300 300 299 299 298 299 298 300 300 298 296 300 300 300 300 298 297 296 295 295 294 293 292 291 291 290 289 288
296 297 296 296 296 298 298 299 298 299 301 296 298 299 300 301 300 300 300 300 296 299 295 296 295 293 297 298 298 298 297 297 296 295 294 294 293 291 291 291 290 289 289 288
296 298 298 298 296 289 295 295 295 292 295 298 299 297 301 300 300 296 297 297 296 294 295 297 294 294 297 296 296 296 295 295 295 294 294 293 292 291 290 290 290 290 289 288
298 295 289 292 287 290 290 292 291 297 299 299 300 298 299 299 297 294 297 293 295 293 293 296 288 296 297 296 296 295 295 295 295 294 294 293 293 291 290 290 290 290 289 287
297 295 291 292 295 296 297 298 298 298 299 300 298 297 298 296 295 294 294 296 296 294 293 288 295 297 297 296 296 295 295 295 294 294 294 293 293 292 291 290 290 290 289 287
297 296 297 298 298 298 297 297 298 299 300 300 298 295 295 294 294 295 292 296 294 290 291 294 296 296 296 296 295 295 295 295 294 293 293 293 292 291 291 290 290 289 289 288
296 296 296 297 297 297 296 298 299 299 300 294 295 294 294 293 293 296 294 290 286 292 294 295 295 296 296 295 295 294 295 294 293 292 292 292 291 290 290 290 290 289 288 287

GFSNW_850_thetae_135.txt.gz
Theta_e
299 301 302 301 301 301 302 303 303 304 307 307 305 308 309 308 309 309 309 309 311 311 307 307 306 307 306 303 303 305 305 307 306 306 303 303 303 305 306 308 307 305 306 309
299 301 301 301 300 301 301 302 302 304 304 306 305 307 308 308 308 309 309 310 310 309 308 309 307 306 303 302 303 305 305 306 307 306 304 303 304 303 304 305 305 306 308 310
298 300 300 300 300 300 300 300 301 302 304 304 305 307 307 308 307 308 308 309 309 309 309 307 307 305 303 303 305 303 304 304 309 310 308 305 305 304 304 305 306 305 308 308
299 300 300 300 300 300 300 300 300 301 302 303 304 305 305 308 308 307 307 309 310 309 309 306 306 304 302 302 302 301 306 306 301 302 303 303 303 304 305 305 305 307 307 307
296 298 299 300 300 300 300 299 300 299 299 302 303 305 305 306 306 307 308 308 309 308 309 308 307 305 303 304 302 302 301 304 299 299 301 302 303 303 303 304 304 304 303 303
296 296 295 297 297 298 298 299 300 300 299 302 302 303 305 304 305 305 306 307 308 308 308 307 307 307 305 304 304 303 303 304 306 309 302 303 305 304 302 304 302 302 302 303
294 295 295 295 297 298 297 299 299 300 300 301 302 301 302 303 303 303 305 305 306 306 305 304 304 304 303 305 303 303 302 306 307 306 303 306 306 300 302 302 302 301 302 302
293 293 295 295 295 297 296 298 298 299 300 300 300 301 301 301 302 303 303 304 305 305 304 305 305 304 304 302 301 300 300 303 303 306 304 305 305 302 303 304 305 304 303 299
293 293 294 295 295 296 296 298 298 298 300 299 300 301 300 301 301 301 302 304 304 305 303 305 307 307 305 304 303 299 300 301 307 304 306 306 304 303 302 302 305 302 300 298
293 293 293 295 295 295 297 297 298 299 299 300 299 300 301 300 300 301 301 302 303 304 303 306 306 306 305 307 305 304 302 301 305 304 305 305 303 303 301 304 305 299 299 297
293 293 293 294 295 295 295 297 297 298 298 299 300 300 300 300 301 301 300 302 301 301 304 305 305 305 304 304 303 303 304 305 304 304 305 305 302 302 304 304 300 300 298 297
292 293 293 294 295 295 296 296 297 298 297 298 298 299 300 300 300 300 301 301 301 302 304 303 303 303 302 304 306 302 305 305 305 304 305 302 302 303 303 301 301 300 300 299
292 293 294 294 295 295 295 296 296 295 295 295 296 297 297 300 301 301 301 301 302 302 303 301 302 304 302 305 304 305 303 302 304 303 304 302 301 302 301 301 301 301 301 300
292 294 294 295 295 296 296 295 295 295 294 294 294 296 296 297 299 301 302 301 302 303 302 301 302 304 301 304 304 304 303 303 304 303 302 301 302 302 302 301 300 300 300 300
292 295 294 295 296 296 296 295 295 295 295 294 295 296 296 298 300 301 301 302 302 302 302 302 303 301 303 302 302 303 302 303 306 307 303 304 302 301 301 300 300 300 300 299
293 294 295 295 295 295 294 295 294 294 294 295 297 298 297 296 298 299 300 303 303 302 302 302 302 302 303 303 304 302 304 304 304 304 302 301 300 299 300 299 299 299 298 298
292 294 294 294 294 294 294 295 295 294 295 295 296 297 300 298 297 300 300 303 303 302 301 301 301 301 303 303 302 300 302 303 302 301 301 299 299 299 299 298 297 297 297 296
292 294 293 293 293 293 295 296 295 295 294 296 297 298 299 301 301 300 302 302 301 302 301 300 301 299 299 301 298 300 299 300 299 299 299 299 298 298 297 297 296 296 295 295
292 293 293 293 293 293 294 296 295 295 295 296 296 298 300 300 301 300 301 301 301 300 303 302 301 301 302 302 300 298 299 300 300 298 297 297 297 296 296 295 295 294 294 293
292 293 293 294 293 295 296 295 295 295 296 297 298 297 301 300 299 300 300 299 302 303 303 299 301 302 300 301 300 300 299 300 299 297 295 295 295 295 295 294 293 293 293 292
293 294 295 294 294 297 296 296 297 296 297 296 297 299 301 300 301 300 299 300 300 302 302 303 303 301 299 299 299 300 300 299 298 297 296 295 295 294 293 292 292 292 291 291
294 296 296 295 295 296 296 298 298 297 299 298 298 298 299 300 300 301 299 301 298 301 297 301 301 299 296 297 298 298 298 297 296 295 295 294 294 293 292 291 291 291 290 289
296 296 296 297 295 296 297 298 299 297 296 296 298 300 299 299 299 298 299 300 300 296 299 301 300 295 296 296 296 296 296 295 295 294 294 294 293 292 291 291 290 290 289 288
297 296 294 296 291 291 293 296 296 296 298 298 300 297 300 298 298 296 299 295 296 298 299 301 295 295 295 295 295 295 295 295 294 294 294 293 293 291 290 290 290 290 289 288
296 294 293 292 293 295 296 297 297 297 298 300 298 298 298 297 296 296 296 298 299 298 299 295 295 296 295 296 295 295 295 295 294 294 294 293 292 290 289 289 289 289 288 287
296 296 297 297 298 297 296 296 297 298 299 299 299 297 296 297 296 296 297 298 298 296 293 294 295 296 296 295 295 295 295 295 294 293 293 293 292 291 290 289 289 289 288 287
295 296 296 296 296 297 296 297 298 299 299 299 297 295 296 295 296 297 296 296 293 293 293 294 295 295 296 295 295 294 295 294 293 293 292 292 290 289 289 289 289 288 288 287

GFSNW_850_thetae_138.txt.gz
Theta_e
301 301 301 302 302 303 301 303 305 304 305 307 307 309 309 308 309 310 311 312 311 310 310 311 312 311 310 305 306 308 309 310 310 309 307 307 308 310 310 312 310 310 310 316
299 300 300 301 301 302 302 303 303 304 304 307 307 308 308 309 308 309 310 311 312 312 310 310 310 309 305 305 306 308 308 309 311 309 308 307 308 309 309 310 310 311 315 316
297 299 300 300 301 301 302 302 303 302 305 304 307 308 309 309 308 309 309 310 311 312 312 311 310 308 305 305 306 304 307 309 315 312 310 310 309 308 308 309 311 311 314 316
295 297 300 300 303 302 301 302 304 304 303 305 306 309 307 307 309 309 309 310 310 311 312 311 310 307 305 304 304 305 308 310 313 309 309 309 310 309 308 310 309 310 313 311
297 300 300 300 302 302 300 301 301 301 304 303 306 306 308 308 308 309 309 310 310 311 310 310 309 308 306 308 304 306 305 309 306 308 306 306 309 309 308 310 308 310 310 309
297 298 299 300 301 301 299 299 301 302 303 305 306 305 307 308 309 308 308 308 309 310 310 309 309 309 308 308 308 307 308 310 309 310 307 308 310 312 309 309 309 308 308 308
296 298 297 300 300 300 300 299 300 302 304 304 305 304 305 306 306 310 307 308 308 307 307 306 306 307 308 308 308 308 309 312 310 311 307 311 313 305 306 308 307 307 306 306
295 297 299 299 300 300 299 299 299 301 303 303 303 303 304 305 304 306 306 306 307 304 306 308 307 307 306 307 308 308 309 310 310 311 310 309 308 307 306 307 307 307 307 307
295 295 297 297 297 298 298 297 298 300 303 303 302 303 303 304 305 307 305 304 305 306 307 307 307 306 305 306 306 303 304 308 310 309 309 308 308 306 306 306 308 306 306 307
294 294 295 296 296 297 297 297 296 299 300 301 301 302 303 302 303 304 304 304 305 306 307 307 306 305 305 306 306 306 306 306 310 310 310 309 308 306 305 307 309 305 305 305
293 294 294 294 295 295 297 297 297 298 299 300 301 301 301 302 302 303 303 304 304 305 306 305 305 306 307 306 306 307 308 308 308 308 311 309 307 305 306 307 305 305 304 303
292 294 294 293 294 296 297 295 296 298 299 300 300 300 300 301 301 301 302 302 303 303 305 304 305 306 306 306 306 306 307 308 309 308 309 307 305 306 305 305 305 304 304 302
292 293 293 293 294 295 295 296 295 297 298 298 299 299 300 300 301 301 302 302 303 304 303 305 306 306 306 307 306 306 306 306 307 307 307 306 305 305 304 304 304 303 302 302
292 292 293 293 294 295 295 295 296 297 297 299 298 296 297 298 300 301 300 302 302 303 304 304 306 306 304 307 306 306 308 307 307 307 308 306 305 304 305 304 302 301 301 301
293 293 293 293 294 295 295 296 296 297 297 299 297 298 298 297 297 298 300 301 303 303 304 305 305 305 306 306 306 308 306 309 309 309 306 306 307 303 303 302 302 300 300 300
293 293 293 293 294 295 295 294 295 295 296 298 301 299 298 297 297 297 299 300 302 303 304 304 304 305 305 307 306 305 305 305 305 306 305 305 302 301 300 301 301 300 299 298
292 293 294 294 295 295 295 296 295 295 295 297 298 299 299 299 299 300 300 298 300 302 303 304 304 304 304 306 307 306 304 304 304 303 302 301 300 302 300 300 299 299 297 296
292 293 295 295 295 295 296 295 294 295 297 298 299 300 301 300 300 301 301 301 301 301 300 301 304 304 304 307 307 305 304 302 302 301 300 300 300 299 298 298 297 296 296 294
295 295 294 295 294 295 295 295 294 295 297 298 298 300 302 301 301 301 301 301 303 301 304 305 305 306 306 307 305 304 302 302 302 299 298 298 298 298 297 296 295 296 295 293
294 294 294 293 294 295 294 294 295 296 297 298 299 299 302 301 299 301 301 300 306 304 304 302 304 305 304 304 304 303 302 301 300 298 298 298 298 297 296 295 295 294 294 292
294 295 295 293 294 296 296 296 297 297 297 297 299 300 301 300 302 302 301 304 304 305 305 305 306 306 305 303 302 300 299 299 298 298 298 298 298 297 295 294 293 293 292 291
295 295 294 295 295 296 297 298 298 297 298 298 299 300 301 301 301 303 301 304 302 304 303 305 306 305 300 299 299 298 299 298 297 297 296 296 295 294 294 293 291 291 291 291
295 296 296 296 296 298 297 300 299 300 300 299 299 301 299 299 300 301 303 303 304 301 304 304 304 299 298 298 297 297 297 297 296 295 294 294 293 293 292 291 291 291 290 290
297 298 297 299 298 299 300 300 301 299 300 300 301 300 302 299 301 301 303 300 301 303 303 303 301 299 296 296 296 296 296 295 294 294 294 293 293 291 290 290 290 290 290 289
297 297 298 297 297 297 297 297 298 297 300 301 301 301 301 301 300 300 300 300 302 302 302 302 298 297 295 295 295 295 295 295 294 294 293 293 292 290 289 289 290 289 289 288
297 297 298 298 299 299 296 297 299 298 301 301 302 302 302 302 301 300 302 301 301 302 299 296 295 295 295 295 295 295 295 295 294 293 293 292 291 290 289 288 289 289 288 287
297 298 296 296 297 298 297 296 299 299 300 304 301 301 301 300 300 300 299 302 299 296 295 295 295 295 295 295 295 295 295 295 294 293 292 291 290 290 289 289 289 288 288 287